Time,TemperatureF,DewpointF,PressureIn,WindDirection,WindDirectionDegrees,WindSpeedMPH,WindSpeedGustMPH,Humidity,HourlyPrecipIn,Conditions,Clouds,dailyrainin,SoftwareType,DateUTC
2013-05-15 00:00:00,53.2,39.3,29.96,ESE,113,0.0,0.0,59,0.00,,---,0.00,VWS V14.01,2013-05-15 04:00:00,
2013-05-15 00:01:00,53.2,39.3,29.96,ESE,113,0.0,0.0,59,0.00,,---,0.00,VWS V14.01,2013-05-15 04:01:00,
2013-05-15 00:06:00,53.2,39.3,29.95,ESE,113,0.0,0.0,59,0.00,,---,0.00,VWS V14.01,2013-05-15 04:06:00,
2013-05-15 00:11:00,53.2,39.3,29.95,ESE,113,0.0,0.0,59,0.00,,---,0.00,VWS V14.01,2013-05-15 04:11:00,
2013-05-15 00:16:00,53.2,38.8,29.95,ESE,113,0.0,0.0,58,0.00,,---,0.00,VWS V14.01,2013-05-15 04:16:00,
2013-05-15 00:21:00,53.1,38.7,29.95,ESE,113,0.0,0.0,58,0.00,,---,0.00,VWS V14.01,2013-05-15 04:21:00,
2013-05-15 00:26:00,53.1,38.7,29.95,ESE,113,0.0,0.0,58,0.00,,---,0.00,VWS V14.01,2013-05-15 04:26:00,
2013-05-15 00:31:00,53.2,39.7,29.95,ESE,113,0.0,0.0,60,0.00,,---,0.00,VWS V14.01,2013-05-15 04:31:00,
2013-05-15 00:36:00,53.2,39.7,29.95,ESE,113,0.0,0.0,60,0.00,,---,0.00,VWS V14.01,2013-05-15 04:36:00,
2013-05-15 00:41:00,53.3,40.2,29.95,ESE,113,0.0,0.0,61,0.00,,---,0.00,VWS V14.01,2013-05-15 04:41:00,
2013-05-15 00:42:00,53.3,40.2,29.95,ESE,113,0.0,0.0,61,0.00,,---,0.00,VWS V14.01,2013-05-15 04:42:00,
2013-05-15 00:46:00,53.3,40.6,29.95,ESE,113,0.0,0.0,62,0.00,,---,0.00,VWS V14.01,2013-05-15 04:46:00,
2013-05-15 00:47:00,53.3,40.6,29.95,ESE,113,0.0,0.0,62,0.00,,---,0.00,VWS V14.01,2013-05-15 04:47:00,
2013-05-15 00:51:00,53.3,40.6,29.94,ESE,113,0.0,0.0,62,0.00,,---,0.00,VWS V14.01,2013-05-15 04:51:00,
2013-05-15 00:52:00,53.3,40.6,29.94,ESE,113,0.0,0.0,62,0.00,,---,0.00,VWS V14.01,2013-05-15 04:52:00,
2013-05-15 00:56:00,53.3,41.0,29.94,ESE,113,0.0,0.0,63,0.00,,---,0.00,VWS V14.01,2013-05-15 04:56:00,
2013-05-15 00:57:00,53.3,41.0,29.94,ESE,113,0.0,0.0,63,0.00,,---,0.00,VWS V14.01,2013-05-15 04:57:00,
2013-05-15 01:01:00,53.2,41.0,29.94,ESE,113,0.0,0.0,63,0.00,,---,0.00,VWS V14.01,2013-05-15 05:01:00,
2013-05-15 01:02:00,53.2,41.0,29.94,ESE,113,0.0,0.0,63,0.00,,---,0.00,VWS V14.01,2013-05-15 05:02:00,
2013-05-15 01:07:00,53.2,41.0,29.93,ESE,113,0.0,0.0,63,0.00,,---,0.00,VWS V14.01,2013-05-15 05:07:00,
2013-05-15 01:12:00,52.9,40.7,29.93,ESE,113,0.0,0.0,63,0.00,,---,0.00,VWS V14.01,2013-05-15 05:12:00,
2013-05-15 01:17:00,52.8,40.6,29.93,ESE,113,0.0,0.0,63,0.00,,---,0.00,VWS V14.01,2013-05-15 05:17:00,
2013-05-15 01:22:00,52.6,40.4,29.92,ESE,113,0.0,0.0,63,0.00,,---,0.00,VWS V14.01,2013-05-15 05:22:00,
2013-05-15 01:27:00,52.3,40.1,29.92,ESE,113,0.0,0.0,63,0.00,,---,0.00,VWS V14.01,2013-05-15 05:27:00,
2013-05-15 01:32:00,52.2,40.4,29.91,ESE,113,0.0,0.0,64,0.00,,---,0.00,VWS V14.01,2013-05-15 05:32:00,
2013-05-15 01:37:00,51.9,40.9,29.91,ESE,113,0.0,0.0,66,0.00,,---,0.00,VWS V14.01,2013-05-15 05:37:00,
2013-05-15 01:42:00,51.7,40.7,29.91,ESE,113,0.0,0.0,66,0.00,,---,0.00,VWS V14.01,2013-05-15 05:42:00,
2013-05-15 01:47:00,51.4,40.8,29.91,ESE,113,0.0,0.0,67,0.00,,---,0.00,VWS V14.01,2013-05-15 05:47:00,
2013-05-15 01:52:00,51.1,40.2,29.91,ESE,113,0.0,0.0,66,0.00,,---,0.00,VWS V14.01,2013-05-15 05:52:00,
2013-05-15 01:57:00,50.8,40.2,29.91,ESE,113,0.0,0.0,67,0.00,,---,0.00,VWS V14.01,2013-05-15 05:57:00,
2013-05-15 02:02:00,50.7,40.5,29.91,ESE,113,0.0,0.0,68,0.00,,---,0.00,VWS V14.01,2013-05-15 06:02:00,
2013-05-15 02:03:00,50.7,40.5,29.91,ESE,113,0.0,0.0,68,0.00,,---,0.00,VWS V14.01,2013-05-15 06:03:00,
2013-05-15 02:07:00,50.4,40.6,29.91,ESE,113,0.0,0.0,69,0.00,,---,0.00,VWS V14.01,2013-05-15 06:07:00,
2013-05-15 02:08:00,50.4,40.6,29.91,ESE,113,0.0,0.0,69,0.00,,---,0.00,VWS V14.01,2013-05-15 06:08:00,
2013-05-15 02:12:00,50.2,40.4,29.91,ESE,113,0.0,0.0,69,0.00,,---,0.00,VWS V14.01,2013-05-15 06:12:00,
2013-05-15 02:13:00,50.2,40.4,29.91,ESE,113,0.0,0.0,69,0.00,,---,0.00,VWS V14.01,2013-05-15 06:13:00,
2013-05-15 02:18:00,49.9,40.2,29.91,ESE,113,0.0,0.0,69,0.00,,---,0.00,VWS V14.01,2013-05-15 06:18:00,
2013-05-15 02:23:00,49.8,41.2,29.91,ESE,113,0.0,0.0,72,0.00,,---,0.00,VWS V14.01,2013-05-15 06:23:00,
2013-05-15 02:28:00,49.5,40.9,29.91,ESE,113,0.0,0.0,72,0.00,,---,0.00,VWS V14.01,2013-05-15 06:28:00,
2013-05-15 02:29:00,49.5,40.9,29.91,ESE,113,0.0,0.0,72,0.00,,---,0.00,VWS V14.01,2013-05-15 06:29:00,
2013-05-15 02:33:00,49.4,40.8,29.91,ESE,113,0.0,0.0,72,0.00,,---,0.00,VWS V14.01,2013-05-15 06:33:00,
2013-05-15 02:34:00,49.4,40.8,29.91,ESE,113,0.0,0.0,72,0.00,,---,0.00,VWS V14.01,2013-05-15 06:34:00,
2013-05-15 02:38:00,49.2,40.9,29.91,ESE,113,0.0,0.0,73,0.00,,---,0.00,VWS V14.01,2013-05-15 06:38:00,
2013-05-15 02:39:00,49.2,41.3,29.91,ESE,113,0.0,0.0,74,0.00,,---,0.00,VWS V14.01,2013-05-15 06:39:00,
2013-05-15 02:43:00,49.1,41.5,29.91,ESE,113,0.0,0.0,75,0.00,,---,0.00,VWS V14.01,2013-05-15 06:43:00,
2013-05-15 02:44:00,49.1,41.5,29.91,ESE,113,0.0,0.0,75,0.00,,---,0.00,VWS V14.01,2013-05-15 06:44:00,
2013-05-15 02:48:00,48.9,41.3,29.91,ESE,113,0.0,0.0,75,0.00,,---,0.00,VWS V14.01,2013-05-15 06:48:00,
2013-05-15 02:49:00,48.8,41.2,29.91,ESE,113,0.0,0.0,75,0.00,,---,0.00,VWS V14.01,2013-05-15 06:49:00,
2013-05-15 02:53:00,48.8,41.2,29.91,ESE,113,0.0,0.0,75,0.00,,---,0.00,VWS V14.01,2013-05-15 06:53:00,
2013-05-15 02:54:00,48.6,41.0,29.91,ESE,113,0.0,0.0,75,0.00,,---,0.00,VWS V14.01,2013-05-15 06:54:00,
2013-05-15 02:58:00,48.5,41.0,29.91,ESE,113,0.0,0.0,75,0.00,,---,0.00,VWS V14.01,2013-05-15 06:58:00,
2013-05-15 02:59:00,48.5,41.0,29.91,ESE,113,0.0,0.0,75,0.00,,---,0.00,VWS V14.01,2013-05-15 06:59:00,
2013-05-15 03:03:00,48.5,41.6,29.91,ESE,113,0.0,0.0,77,0.00,,---,0.00,VWS V14.01,2013-05-15 07:03:00,
2013-05-15 03:04:00,48.3,41.4,29.91,ESE,113,0.0,0.0,77,0.00,,---,0.00,VWS V14.01,2013-05-15 07:04:00,
2013-05-15 03:08:00,48.3,41.4,29.91,ESE,113,0.0,0.0,77,0.00,,---,0.00,VWS V14.01,2013-05-15 07:08:00,
2013-05-15 03:09:00,48.3,41.4,29.91,ESE,113,0.0,0.0,77,0.00,,---,0.00,VWS V14.01,2013-05-15 07:09:00,
2013-05-15 03:13:00,48.2,41.3,29.91,ESE,113,0.0,0.0,77,0.00,,---,0.00,VWS V14.01,2013-05-15 07:13:00,
2013-05-15 03:14:00,48.2,41.3,29.91,ESE,113,0.0,0.0,77,0.00,,---,0.00,VWS V14.01,2013-05-15 07:14:00,
2013-05-15 03:18:00,48.0,41.5,29.91,ESE,113,0.0,0.0,78,0.00,,---,0.00,VWS V14.01,2013-05-15 07:18:00,
2013-05-15 03:19:00,48.0,41.5,29.91,ESE,113,0.0,0.0,78,0.00,,---,0.00,VWS V14.01,2013-05-15 07:19:00,
2013-05-15 03:23:00,48.0,41.5,29.91,ESE,113,0.0,0.0,78,0.00,,---,0.00,VWS V14.01,2013-05-15 07:23:00,
2013-05-15 03:24:00,48.0,41.5,29.91,ESE,113,0.0,0.0,78,0.00,,---,0.00,VWS V14.01,2013-05-15 07:24:00,
2013-05-15 03:28:00,48.0,41.8,29.91,ESE,113,0.0,0.0,79,0.00,,---,0.00,VWS V14.01,2013-05-15 07:28:00,
2013-05-15 03:29:00,48.0,41.8,29.91,ESE,113,0.0,0.0,79,0.00,,---,0.00,VWS V14.01,2013-05-15 07:29:00,
2013-05-15 03:34:00,48.0,42.1,29.91,ESE,113,0.0,0.0,80,0.00,,---,0.00,VWS V14.01,2013-05-15 07:34:00,
2013-05-15 03:39:00,48.0,42.1,29.91,ESE,113,2.0,2.0,80,0.00,,---,0.00,VWS V14.01,2013-05-15 07:39:00,
2013-05-15 03:44:00,48.0,42.1,29.91,ESE,113,0.0,0.0,80,0.00,,---,0.00,VWS V14.01,2013-05-15 07:44:00,
2013-05-15 03:49:00,48.0,42.1,29.90,ESE,113,0.0,0.0,80,0.00,,---,0.00,VWS V14.01,2013-05-15 07:49:00,
2013-05-15 03:50:00,48.0,42.5,29.90,ESE,113,0.0,0.0,81,0.00,,---,0.00,VWS V14.01,2013-05-15 07:50:00,
2013-05-15 03:54:00,48.0,42.5,29.90,ESE,113,0.0,0.0,81,0.00,,---,0.00,VWS V14.01,2013-05-15 07:54:00,
2013-05-15 03:55:00,48.0,42.5,29.90,ESE,113,0.0,0.0,81,0.00,,---,0.00,VWS V14.01,2013-05-15 07:55:00,
2013-05-15 03:59:00,48.0,42.5,29.90,ESE,113,0.0,0.0,81,0.00,,---,0.00,VWS V14.01,2013-05-15 07:59:00,
2013-05-15 04:00:00,48.0,42.5,29.90,ESE,113,0.0,0.0,81,0.00,,---,0.00,VWS V14.01,2013-05-15 08:00:00,
2013-05-15 04:04:00,48.0,42.5,29.89,ESE,113,0.0,0.0,81,0.00,,---,0.00,VWS V14.01,2013-05-15 08:04:00,
2013-05-15 04:05:00,48.0,42.5,29.89,ESE,113,0.0,0.0,81,0.00,,---,0.00,VWS V14.01,2013-05-15 08:05:00,
2013-05-15 04:09:00,48.2,43.0,29.89,ESE,113,0.0,0.0,82,0.00,,---,0.00,VWS V14.01,2013-05-15 08:09:00,
2013-05-15 04:10:00,48.2,43.0,29.89,ESE,113,0.0,0.0,82,0.00,,---,0.00,VWS V14.01,2013-05-15 08:10:00,
2013-05-15 04:14:00,48.2,43.0,29.89,ESE,113,0.0,0.0,82,0.00,,---,0.00,VWS V14.01,2013-05-15 08:14:00,
2013-05-15 04:15:00,48.2,43.0,29.89,ESE,113,0.0,0.0,82,0.00,,---,0.00,VWS V14.01,2013-05-15 08:15:00,
2013-05-15 04:19:00,48.2,43.0,29.89,ESE,113,0.0,0.0,82,0.00,,---,0.00,VWS V14.01,2013-05-15 08:19:00,
2013-05-15 04:20:00,48.2,43.0,29.89,ESE,113,0.0,0.0,82,0.00,,---,0.00,VWS V14.01,2013-05-15 08:20:00,
2013-05-15 04:24:00,48.0,42.8,29.89,ESE,113,0.0,0.0,82,0.00,,---,0.00,VWS V14.01,2013-05-15 08:24:00,
2013-05-15 04:25:00,48.0,42.8,29.89,ESE,113,0.0,0.0,82,0.00,,---,0.00,VWS V14.01,2013-05-15 08:25:00,
2013-05-15 04:29:00,48.0,42.8,29.89,ESE,113,0.0,0.0,82,0.00,,---,0.00,VWS V14.01,2013-05-15 08:29:00,
2013-05-15 04:30:00,48.0,42.8,29.89,ESE,113,0.0,0.0,82,0.00,,---,0.00,VWS V14.01,2013-05-15 08:30:00,
2013-05-15 04:34:00,47.9,42.7,29.89,ESE,113,0.0,0.0,82,0.00,,---,0.00,VWS V14.01,2013-05-15 08:34:00,
2013-05-15 04:35:00,47.9,42.7,29.89,ESE,113,0.0,0.0,82,0.00,,---,0.00,VWS V14.01,2013-05-15 08:35:00,
2013-05-15 04:39:00,47.7,42.2,29.89,ESE,113,0.0,0.0,81,0.00,,---,0.00,VWS V14.01,2013-05-15 08:39:00,
2013-05-15 04:40:00,47.7,42.2,29.89,ESE,113,0.0,0.0,81,0.00,,---,0.00,VWS V14.01,2013-05-15 08:40:00,
2013-05-15 04:41:00,47.7,42.2,29.89,ESE,113,0.0,0.0,81,0.00,,---,0.00,VWS V14.01,2013-05-15 08:41:00,
2013-05-15 04:44:00,47.6,42.1,29.89,ESE,113,0.0,0.0,81,0.00,,---,0.00,VWS V14.01,2013-05-15 08:44:00,
2013-05-15 04:45:00,47.6,42.1,29.89,ESE,113,0.0,0.0,81,0.00,,---,0.00,VWS V14.01,2013-05-15 08:45:00,
2013-05-15 04:46:00,47.6,42.1,29.89,ESE,113,0.0,0.0,81,0.00,,---,0.00,VWS V14.01,2013-05-15 08:46:00,
2013-05-15 04:49:00,47.4,41.9,29.89,ESE,113,0.0,0.0,81,0.00,,---,0.00,VWS V14.01,2013-05-15 08:49:00,
2013-05-15 04:50:00,47.4,41.9,29.89,ESE,113,0.0,0.0,81,0.00,,---,0.00,VWS V14.01,2013-05-15 08:50:00,
2013-05-15 04:51:00,47.4,41.9,29.89,ESE,113,0.0,0.0,81,0.00,,---,0.00,VWS V14.01,2013-05-15 08:51:00,
2013-05-15 04:55:00,47.4,41.9,29.89,ESE,113,0.0,0.0,81,0.00,,---,0.00,VWS V14.01,2013-05-15 08:55:00,
2013-05-15 04:56:00,47.3,41.8,29.89,ESE,113,0.0,0.0,81,0.00,,---,0.00,VWS V14.01,2013-05-15 08:56:00,
2013-05-15 05:00:00,47.3,41.8,29.89,ESE,113,0.0,0.0,81,0.00,,---,0.00,VWS V14.01,2013-05-15 09:00:00,
2013-05-15 05:01:00,47.1,41.6,29.89,ESE,113,0.0,0.0,81,0.00,,---,0.00,VWS V14.01,2013-05-15 09:01:00,
2013-05-15 05:05:00,47.1,41.6,29.89,ESE,113,0.0,0.0,81,0.00,,---,0.00,VWS V14.01,2013-05-15 09:05:00,
2013-05-15 05:06:00,47.0,41.5,29.89,ESE,113,0.0,0.0,81,0.00,,---,0.00,VWS V14.01,2013-05-15 09:06:00,
2013-05-15 05:10:00,47.0,41.5,29.89,ESE,113,0.0,0.0,81,0.00,,---,0.00,VWS V14.01,2013-05-15 09:10:00,
2013-05-15 05:11:00,47.0,41.5,29.89,ESE,113,0.0,0.0,81,0.00,,---,0.00,VWS V14.01,2013-05-15 09:11:00,
2013-05-15 05:15:00,46.8,41.6,29.89,ESE,113,0.0,0.0,82,0.00,,---,0.00,VWS V14.01,2013-05-15 09:15:00,
2013-05-15 05:16:00,46.8,41.6,29.89,ESE,113,0.0,0.0,82,0.00,,---,0.00,VWS V14.01,2013-05-15 09:16:00,
2013-05-15 05:20:00,46.7,41.5,29.89,ESE,113,0.0,0.0,82,0.00,,---,0.00,VWS V14.01,2013-05-15 09:20:00,
2013-05-15 05:21:00,46.7,41.5,29.89,ESE,113,0.0,0.0,82,0.00,,---,0.00,VWS V14.01,2013-05-15 09:21:00,
2013-05-15 05:22:00,46.7,41.5,29.89,ESE,113,0.0,0.0,82,0.00,,---,0.00,VWS V14.01,2013-05-15 09:22:00,
2013-05-15 05:25:00,46.5,41.3,29.89,ESE,113,0.0,0.0,82,0.00,,---,0.00,VWS V14.01,2013-05-15 09:25:00,
2013-05-15 05:26:00,46.5,41.3,29.89,ESE,113,0.0,0.0,82,0.00,,---,0.00,VWS V14.01,2013-05-15 09:26:00,
2013-05-15 05:27:00,46.5,41.3,29.89,ESE,113,0.0,0.0,82,0.00,,---,0.00,VWS V14.01,2013-05-15 09:27:00,
2013-05-15 05:30:00,46.4,41.2,29.89,ESE,113,0.0,0.0,82,0.00,,---,0.00,VWS V14.01,2013-05-15 09:30:00,
2013-05-15 05:31:00,46.4,41.2,29.89,ESE,113,0.0,0.0,82,0.00,,---,0.00,VWS V14.01,2013-05-15 09:31:00,
2013-05-15 05:32:00,46.4,41.2,29.89,ESE,113,0.0,0.0,82,0.00,,---,0.00,VWS V14.01,2013-05-15 09:32:00,
2013-05-15 05:35:00,46.2,41.0,29.89,ESE,113,0.0,0.0,82,0.00,,---,0.00,VWS V14.01,2013-05-15 09:35:00,
2013-05-15 05:36:00,46.2,41.0,29.89,ESE,113,0.0,0.0,82,0.00,,---,0.00,VWS V14.01,2013-05-15 09:36:00,
2013-05-15 05:37:00,46.2,41.0,29.89,ESE,113,0.0,0.0,82,0.00,,---,0.00,VWS V14.01,2013-05-15 09:37:00,
2013-05-15 05:40:00,46.1,40.9,29.89,ESE,113,0.0,0.0,82,0.00,,---,0.00,VWS V14.01,2013-05-15 09:40:00,
2013-05-15 05:41:00,46.1,40.9,29.89,ESE,113,1.0,1.0,82,0.00,,---,0.00,VWS V14.01,2013-05-15 09:41:00,
2013-05-15 05:42:00,46.1,40.9,29.89,ESE,113,0.0,0.0,82,0.00,,---,0.00,VWS V14.01,2013-05-15 09:42:00,
2013-05-15 05:45:00,46.0,40.8,29.89,ESE,113,0.0,0.0,82,0.00,,---,0.00,VWS V14.01,2013-05-15 09:45:00,
2013-05-15 05:46:00,46.0,40.8,29.89,ESE,113,0.0,0.0,82,0.00,,---,0.00,VWS V14.01,2013-05-15 09:46:00,
2013-05-15 05:47:00,46.0,40.8,29.90,ESE,113,0.0,0.0,82,0.00,,---,0.00,VWS V14.01,2013-05-15 09:47:00,
2013-05-15 05:50:00,45.8,40.6,29.90,ESE,113,0.0,0.0,82,0.00,,---,0.00,VWS V14.01,2013-05-15 09:50:00,
2013-05-15 05:51:00,45.7,40.5,29.90,ESE,113,0.0,0.0,82,0.00,,---,0.00,VWS V14.01,2013-05-15 09:51:00,
2013-05-15 05:52:00,45.7,40.5,29.90,ESE,113,0.0,0.0,82,0.00,,---,0.00,VWS V14.01,2013-05-15 09:52:00,
2013-05-15 05:55:00,45.7,40.5,29.90,ESE,113,0.0,0.0,82,0.00,,---,0.00,VWS V14.01,2013-05-15 09:55:00,
2013-05-15 05:56:00,45.5,40.3,29.90,ESE,113,0.0,0.0,82,0.00,,---,0.00,VWS V14.01,2013-05-15 09:56:00,
2013-05-15 05:57:00,45.5,40.3,29.90,ESE,113,0.0,0.0,82,0.00,,---,0.00,VWS V14.01,2013-05-15 09:57:00,
2013-05-15 06:00:00,45.5,40.3,29.90,ESE,113,0.0,0.0,82,0.00,,---,0.00,VWS V14.01,2013-05-15 10:00:00,
2013-05-15 06:01:00,45.4,40.2,29.90,ESE,113,0.0,0.0,82,0.00,,---,0.00,VWS V14.01,2013-05-15 10:01:00,
2013-05-15 06:02:00,45.4,40.5,29.90,ESE,113,0.0,0.0,83,0.00,,---,0.00,VWS V14.01,2013-05-15 10:02:00,
2013-05-15 06:05:00,45.4,40.5,29.90,ESE,113,0.0,0.0,83,0.00,,---,0.00,VWS V14.01,2013-05-15 10:05:00,
2013-05-15 06:06:00,45.4,40.5,29.90,ESE,113,0.0,0.0,83,0.00,,---,0.00,VWS V14.01,2013-05-15 10:06:00,
2013-05-15 06:07:00,45.4,40.5,29.90,ESE,113,0.0,0.0,83,0.00,,---,0.00,VWS V14.01,2013-05-15 10:07:00,
2013-05-15 06:10:00,45.2,40.3,29.90,ESE,113,0.0,0.0,83,0.00,,---,0.00,VWS V14.01,2013-05-15 10:10:00,
2013-05-15 06:11:00,45.2,40.3,29.90,ESE,113,0.0,0.0,83,0.00,,---,0.00,VWS V14.01,2013-05-15 10:11:00,
2013-05-15 06:12:00,45.2,40.3,29.90,ESE,113,0.0,0.0,83,0.00,,---,0.00,VWS V14.01,2013-05-15 10:12:00,
2013-05-15 06:15:00,45.2,40.7,29.90,ESE,113,0.0,0.0,84,0.00,,---,0.00,VWS V14.01,2013-05-15 10:15:00,
2013-05-15 06:16:00,45.2,40.7,29.90,ESE,113,0.0,0.0,84,0.00,,---,0.00,VWS V14.01,2013-05-15 10:16:00,
2013-05-15 06:17:00,45.2,40.7,29.89,ESE,113,0.0,0.0,84,0.00,,---,0.00,VWS V14.01,2013-05-15 10:17:00,
2013-05-15 06:21:00,45.1,40.6,29.89,ESE,113,0.0,0.0,84,0.00,,---,0.00,VWS V14.01,2013-05-15 10:21:00,
2013-05-15 06:22:00,45.1,40.6,29.89,ESE,113,0.0,0.0,84,0.00,,---,0.00,VWS V14.01,2013-05-15 10:22:00,
2013-05-15 06:26:00,45.1,40.9,29.89,ESE,113,0.0,0.0,85,0.00,,---,0.00,VWS V14.01,2013-05-15 10:26:00,
2013-05-15 06:27:00,45.1,40.9,29.89,ESE,113,0.0,0.0,85,0.00,,---,0.00,VWS V14.01,2013-05-15 10:27:00,
2013-05-15 06:31:00,45.1,40.9,29.89,ESE,113,0.0,0.0,85,0.00,,---,0.00,VWS V14.01,2013-05-15 10:31:00,
2013-05-15 06:32:00,45.1,40.9,29.89,ESE,113,0.0,0.0,85,0.00,,---,0.00,VWS V14.01,2013-05-15 10:32:00,
2013-05-15 06:36:00,45.1,41.2,29.88,ESE,113,0.0,0.0,86,0.00,,---,0.00,VWS V14.01,2013-05-15 10:36:00,
2013-05-15 06:37:00,45.1,41.2,29.88,ESE,113,0.0,0.0,86,0.00,,---,0.00,VWS V14.01,2013-05-15 10:37:00,
2013-05-15 06:41:00,45.1,41.2,29.88,ESE,113,0.0,0.0,86,0.00,,---,0.00,VWS V14.01,2013-05-15 10:41:00,
2013-05-15 06:42:00,45.2,41.3,29.88,ESE,113,0.0,0.0,86,0.00,,---,0.00,VWS V14.01,2013-05-15 10:42:00,
2013-05-15 06:46:00,45.2,41.6,29.88,ESE,113,0.0,0.0,87,0.00,,---,0.00,VWS V14.01,2013-05-15 10:46:00,
2013-05-15 06:47:00,45.2,41.6,29.90,ESE,117,0.0,0.0,87,0.00,,---,0.00,VWS V14.01,2013-05-15 10:47:00,
2013-05-15 06:48:00,45.2,41.6,29.90,ESE,117,0.0,0.0,87,0.00,,---,0.00,VWS V14.01,2013-05-15 10:48:00,
2013-05-15 06:51:00,45.5,42.2,29.90,ESE,117,0.0,0.0,88,0.00,,---,0.00,VWS V14.01,2013-05-15 10:51:00,
2013-05-15 06:52:00,45.7,42.4,29.90,ESE,117,0.0,0.0,88,0.00,,---,0.00,VWS V14.01,2013-05-15 10:52:00,
2013-05-15 06:53:00,45.7,42.4,29.90,ESE,117,0.0,0.0,88,0.00,,---,0.00,VWS V14.01,2013-05-15 10:53:00,
2013-05-15 06:56:00,45.8,42.5,29.90,ESE,117,0.0,0.0,88,0.00,,---,0.00,VWS V14.01,2013-05-15 10:56:00,
2013-05-15 06:58:00,45.8,42.8,29.90,ESE,117,0.0,0.0,89,0.00,,---,0.00,VWS V14.01,2013-05-15 10:58:00,
2013-05-15 07:01:00,46.0,43.0,29.90,ESE,117,0.0,0.0,89,0.00,,---,0.00,VWS V14.01,2013-05-15 11:01:00,
2013-05-15 07:03:00,46.0,43.0,29.88,ESE,117,0.0,0.0,89,0.00,,---,0.00,VWS V14.01,2013-05-15 11:03:00,
2013-05-15 07:06:00,46.1,43.0,29.88,ESE,117,0.0,0.0,89,0.00,,---,0.00,VWS V14.01,2013-05-15 11:06:00,
2013-05-15 07:07:00,46.1,43.0,29.88,ESE,117,0.0,0.0,89,0.00,,---,0.00,VWS V14.01,2013-05-15 11:07:00,
2013-05-15 07:08:00,46.2,43.4,29.88,ESE,117,0.0,0.0,90,0.00,,---,0.00,VWS V14.01,2013-05-15 11:08:00,
2013-05-15 07:12:00,46.4,43.6,29.88,ESE,117,0.0,0.0,90,0.00,,---,0.00,VWS V14.01,2013-05-15 11:12:00,
2013-05-15 07:13:00,46.4,43.6,29.88,ESE,117,0.0,1.0,90,0.00,,---,0.00,VWS V14.01,2013-05-15 11:13:00,
2013-05-15 07:14:00,46.4,43.6,29.88,ESE,117,0.0,0.0,90,0.00,,---,0.00,VWS V14.01,2013-05-15 11:14:00,
2013-05-15 07:17:00,46.5,43.7,29.89,ESE,117,0.0,0.0,90,0.00,,---,0.00,VWS V14.01,2013-05-15 11:17:00,
2013-05-15 07:18:00,46.7,43.9,29.89,ESE,117,0.0,0.0,90,0.00,,---,0.00,VWS V14.01,2013-05-15 11:18:00,
2013-05-15 07:19:00,46.7,43.9,29.89,ESE,117,0.0,0.0,90,0.00,,---,0.00,VWS V14.01,2013-05-15 11:19:00,
2013-05-15 07:22:00,46.8,44.0,29.89,ESE,117,0.0,0.0,90,0.00,,---,0.00,VWS V14.01,2013-05-15 11:22:00,
2013-05-15 07:24:00,46.8,44.0,29.89,ESE,117,0.0,0.0,90,0.00,,---,0.00,VWS V14.01,2013-05-15 11:24:00,
2013-05-15 07:27:00,47.1,44.6,29.89,ESE,117,0.0,0.0,91,0.00,,---,0.00,VWS V14.01,2013-05-15 11:27:00,
2013-05-15 07:28:00,47.1,44.6,29.89,ESE,117,0.0,0.0,91,0.00,,---,0.00,VWS V14.01,2013-05-15 11:28:00,
2013-05-15 07:30:00,47.3,44.8,29.89,ESE,117,0.0,0.0,91,0.00,,---,0.00,VWS V14.01,2013-05-15 11:30:00,
2013-05-15 07:32:00,47.4,44.9,29.88,ESE,117,0.0,0.0,91,0.00,,---,0.00,VWS V14.01,2013-05-15 11:32:00,
2013-05-15 07:33:00,47.4,44.9,29.88,ESE,117,0.0,0.0,91,0.00,,---,0.00,VWS V14.01,2013-05-15 11:33:00,
2013-05-15 07:34:00,47.4,44.9,29.88,ESE,117,0.0,1.0,91,0.00,,---,0.00,VWS V14.01,2013-05-15 11:34:00,
2013-05-15 07:35:00,47.6,45.1,29.88,ESE,117,0.0,0.0,91,0.00,,---,0.00,VWS V14.01,2013-05-15 11:35:00,
2013-05-15 07:38:00,47.7,44.9,29.88,ESE,117,1.0,2.0,90,0.00,,---,0.00,VWS V14.01,2013-05-15 11:38:00,
2013-05-15 07:39:00,47.7,44.9,29.88,ESE,117,0.0,0.0,90,0.00,,---,0.00,VWS V14.01,2013-05-15 11:39:00,
2013-05-15 07:40:00,47.9,45.1,29.88,ESE,117,0.0,0.0,90,0.00,,---,0.00,VWS V14.01,2013-05-15 11:40:00,
2013-05-15 07:43:00,48.0,45.2,29.88,ESE,117,0.0,0.0,90,0.00,,---,0.00,VWS V14.01,2013-05-15 11:43:00,
2013-05-15 07:45:00,48.0,45.2,29.88,ESE,117,0.0,0.0,90,0.00,,---,0.00,VWS V14.01,2013-05-15 11:45:00,
2013-05-15 07:46:00,48.0,45.2,29.88,ESE,117,0.0,0.0,90,0.00,,---,0.00,VWS V14.01,2013-05-15 11:46:00,
2013-05-15 07:48:00,48.2,45.4,29.88,ESE,117,0.0,0.0,90,0.00,,---,0.00,VWS V14.01,2013-05-15 11:48:00,
2013-05-15 07:49:00,48.2,45.1,29.88,ESE,117,0.0,0.0,89,0.00,,---,0.00,VWS V14.01,2013-05-15 11:49:00,
2013-05-15 07:50:00,48.2,45.1,29.88,ESE,117,0.0,0.0,89,0.00,,---,0.00,VWS V14.01,2013-05-15 11:50:00,
2013-05-15 07:51:00,48.3,45.2,29.88,ESE,117,0.0,0.0,89,0.00,,---,0.00,VWS V14.01,2013-05-15 11:51:00,
2013-05-15 07:53:00,48.5,45.4,29.88,ESE,117,0.0,0.0,89,0.00,,---,0.00,VWS V14.01,2013-05-15 11:53:00,
2013-05-15 07:54:00,48.5,45.4,29.88,ESE,117,0.0,0.0,89,0.00,,---,0.00,VWS V14.01,2013-05-15 11:54:00,
2013-05-15 07:56:00,48.6,45.5,29.88,ESE,117,0.0,0.0,89,0.00,,---,0.00,VWS V14.01,2013-05-15 11:56:00,
2013-05-15 07:57:00,48.6,45.5,29.88,ESE,117,0.0,0.0,89,0.00,,---,0.00,VWS V14.01,2013-05-15 11:57:00,
2013-05-15 07:59:00,48.8,45.7,29.88,ESE,117,0.0,0.0,89,0.00,,---,0.00,VWS V14.01,2013-05-15 11:59:00,
2013-05-15 08:00:00,48.8,45.7,29.88,ESE,117,0.0,0.0,89,0.00,,---,0.00,VWS V14.01,2013-05-15 12:00:00,
2013-05-15 08:01:00,48.8,45.7,29.88,ESE,117,0.0,0.0,89,0.00,,---,0.00,VWS V14.01,2013-05-15 12:01:00,
2013-05-15 08:02:00,48.9,45.8,29.88,ESE,117,0.0,0.0,89,0.00,,---,0.00,VWS V14.01,2013-05-15 12:02:00,
2013-05-15 08:04:00,48.9,45.8,29.88,ESE,117,0.0,0.0,89,0.00,,---,0.00,VWS V14.01,2013-05-15 12:04:00,
2013-05-15 08:06:00,49.1,46.0,29.88,ESE,117,0.0,0.0,89,0.00,,---,0.00,VWS V14.01,2013-05-15 12:06:00,
2013-05-15 08:07:00,49.1,45.7,29.88,ESE,117,0.0,0.0,88,0.00,,---,0.00,VWS V14.01,2013-05-15 12:07:00,
2013-05-15 08:10:00,49.2,45.8,29.88,ESE,117,0.0,0.0,88,0.00,,---,0.00,VWS V14.01,2013-05-15 12:10:00,
2013-05-15 08:11:00,49.4,46.0,29.88,ESE,117,0.0,0.0,88,0.00,,---,0.00,VWS V14.01,2013-05-15 12:11:00,
2013-05-15 08:12:00,49.4,46.0,29.88,ESE,117,0.0,0.0,88,0.00,,---,0.00,VWS V14.01,2013-05-15 12:12:00,
2013-05-15 08:15:00,49.5,46.1,29.88,ESE,117,1.0,2.0,88,0.00,,---,0.00,VWS V14.01,2013-05-15 12:15:00,
2013-05-15 08:16:00,49.6,45.9,29.88,ESE,117,0.0,2.0,87,0.00,,---,0.00,VWS V14.01,2013-05-15 12:16:00,
2013-05-15 08:17:00,49.6,45.9,29.89,ESE,117,0.0,0.0,87,0.00,,---,0.00,VWS V14.01,2013-05-15 12:17:00,
2013-05-15 08:21:00,49.8,45.8,29.89,ESE,117,3.0,3.0,86,0.00,,---,0.00,VWS V14.01,2013-05-15 12:21:00,
2013-05-15 08:22:00,49.9,45.9,29.89,ESE,117,3.0,3.0,86,0.00,,---,0.00,VWS V14.01,2013-05-15 12:22:00,
2013-05-15 08:26:00,50.1,45.8,29.89,ESE,117,0.0,2.0,85,0.00,,---,0.00,VWS V14.01,2013-05-15 12:26:00,
2013-05-15 08:27:00,50.1,45.5,29.89,ESE,117,1.0,1.0,84,0.00,,---,0.00,VWS V14.01,2013-05-15 12:27:00,
2013-05-15 08:28:00,50.1,45.5,29.89,ESE,117,3.0,3.0,84,0.00,,---,0.00,VWS V14.01,2013-05-15 12:28:00,
2013-05-15 08:31:00,50.2,44.9,29.89,ESE,117,0.0,0.0,82,0.00,,---,0.00,VWS V14.01,2013-05-15 12:31:00,
2013-05-15 08:32:00,50.2,44.6,29.88,ESE,117,0.0,0.0,81,0.00,,---,0.00,VWS V14.01,2013-05-15 12:32:00,
2013-05-15 08:33:00,50.4,44.8,29.88,ESE,117,0.0,0.0,81,0.00,,---,0.00,VWS V14.01,2013-05-15 12:33:00,
2013-05-15 08:36:00,50.7,44.8,29.88,ESE,117,2.0,2.0,80,0.00,,---,0.00,VWS V14.01,2013-05-15 12:36:00,
2013-05-15 08:37:00,50.7,44.8,29.88,ESE,117,1.0,2.0,80,0.00,,---,0.00,VWS V14.01,2013-05-15 12:37:00,
2013-05-15 08:38:00,50.7,44.8,29.88,ESE,117,1.0,2.0,80,0.00,,---,0.00,VWS V14.01,2013-05-15 12:38:00,
2013-05-15 08:41:00,51.0,44.4,29.88,ESE,117,2.0,3.0,78,0.00,,---,0.00,VWS V14.01,2013-05-15 12:41:00,
2013-05-15 08:43:00,51.0,44.0,29.88,ESE,117,0.0,0.0,77,0.00,,---,0.00,VWS V14.01,2013-05-15 12:43:00,
2013-05-15 08:47:00,51.3,44.0,29.88,ESE,117,0.0,0.0,76,0.00,,---,0.00,VWS V14.01,2013-05-15 12:47:00,
2013-05-15 08:48:00,51.3,44.0,29.88,ESE,117,0.0,0.0,76,0.00,,---,0.00,VWS V14.01,2013-05-15 12:48:00,
2013-05-15 08:52:00,51.6,43.6,29.88,ESE,117,0.0,0.0,74,0.00,,---,0.00,VWS V14.01,2013-05-15 12:52:00,
2013-05-15 08:53:00,51.6,43.6,29.88,ESE,117,0.0,0.0,74,0.00,,---,0.00,VWS V14.01,2013-05-15 12:53:00,
2013-05-15 08:57:00,51.9,43.5,29.88,ESE,117,0.0,1.0,73,0.00,,---,0.00,VWS V14.01,2013-05-15 12:57:00,
2013-05-15 08:58:00,51.9,43.2,29.88,ESE,117,0.0,0.0,72,0.00,,---,0.00,VWS V14.01,2013-05-15 12:58:00,
2013-05-15 09:03:00,52.2,43.8,29.88,ESE,117,0.0,0.0,73,0.00,,---,0.00,VWS V14.01,2013-05-15 13:03:00,
2013-05-15 09:04:00,52.2,43.8,29.88,ESE,117,0.0,0.0,73,0.00,,---,0.00,VWS V14.01,2013-05-15 13:04:00,
2013-05-15 09:08:00,52.6,44.9,29.88,ESE,117,0.0,0.0,75,0.00,,---,0.00,VWS V14.01,2013-05-15 13:08:00,
2013-05-15 09:09:00,52.6,44.9,29.88,ESE,117,0.0,0.0,75,0.00,,---,0.00,VWS V14.01,2013-05-15 13:09:00,
2013-05-15 09:13:00,52.9,44.8,29.88,ESE,117,0.0,0.0,74,0.00,,---,0.00,VWS V14.01,2013-05-15 13:13:00,
2013-05-15 09:14:00,52.9,44.8,29.88,ESE,117,0.0,0.0,74,0.00,,---,0.00,VWS V14.01,2013-05-15 13:14:00,
2013-05-15 09:18:00,53.2,45.1,29.87,ESE,117,0.0,0.0,74,0.00,,---,0.00,VWS V14.01,2013-05-15 13:18:00,
2013-05-15 09:19:00,53.2,45.1,29.87,ESE,117,0.0,0.0,74,0.00,,---,0.00,VWS V14.01,2013-05-15 13:19:00,
2013-05-15 09:24:00,53.5,45.1,29.87,ESE,117,0.0,0.0,73,0.00,,---,0.00,VWS V14.01,2013-05-15 13:24:00,
2013-05-15 09:29:00,53.9,45.1,29.87,ESE,117,0.0,0.0,72,0.00,,---,0.00,VWS V14.01,2013-05-15 13:29:00,
2013-05-15 09:30:00,53.9,45.5,29.87,ESE,117,0.0,0.0,73,0.00,,---,0.00,VWS V14.01,2013-05-15 13:30:00,
2013-05-15 09:34:00,54.2,45.4,29.86,ESE,117,0.0,0.0,72,0.00,,---,0.00,VWS V14.01,2013-05-15 13:34:00,
2013-05-15 09:35:00,54.2,45.4,29.86,ESE,117,1.0,1.0,72,0.00,,---,0.00,VWS V14.01,2013-05-15 13:35:00,
2013-05-15 09:39:00,54.5,45.7,29.86,ESE,117,0.0,0.0,72,0.00,,---,0.00,VWS V14.01,2013-05-15 13:39:00,
2013-05-15 09:40:00,54.7,45.9,29.86,ESE,117,2.0,2.0,72,0.00,,---,0.00,VWS V14.01,2013-05-15 13:40:00,
2013-05-15 09:44:00,54.8,45.2,29.86,ESE,117,0.0,0.0,70,0.00,,---,0.00,VWS V14.01,2013-05-15 13:44:00,
2013-05-15 09:45:00,55.0,45.4,29.86,ESE,117,0.0,0.0,70,0.00,,---,0.00,VWS V14.01,2013-05-15 13:45:00,
2013-05-15 09:46:00,55.0,45.4,29.86,ESE,117,0.0,0.0,70,0.00,,---,0.00,VWS V14.01,2013-05-15 13:46:00,
2013-05-15 09:49:00,55.4,46.2,29.86,ESE,117,0.0,1.0,71,0.00,,---,0.00,VWS V14.01,2013-05-15 13:49:00,
2013-05-15 09:50:00,55.4,46.2,29.86,ESE,117,0.0,1.0,71,0.00,,---,0.00,VWS V14.01,2013-05-15 13:50:00,
2013-05-15 09:51:00,55.4,46.2,29.86,ESE,117,0.0,0.0,71,0.00,,---,0.00,VWS V14.01,2013-05-15 13:51:00,
2013-05-15 09:55:00,55.9,46.3,29.86,ESE,117,0.0,0.0,70,0.00,,---,0.00,VWS V14.01,2013-05-15 13:55:00,
2013-05-15 09:56:00,55.9,45.9,29.86,ESE,117,0.0,0.0,69,0.00,,---,0.00,VWS V14.01,2013-05-15 13:56:00,
2013-05-15 10:00:00,56.5,46.5,29.86,ESE,117,0.0,0.0,69,0.00,,---,0.00,VWS V14.01,2013-05-15 14:00:00,
2013-05-15 10:01:00,56.5,46.5,29.86,ESE,117,0.0,0.0,69,0.00,,---,0.00,VWS V14.01,2013-05-15 14:01:00,
2013-05-15 10:05:00,57.2,47.1,29.86,ESE,117,0.0,0.0,69,0.00,,---,0.00,VWS V14.01,2013-05-15 14:05:00,
2013-05-15 10:06:00,57.2,47.1,29.86,ESE,117,0.0,0.0,69,0.00,,---,0.00,VWS V14.01,2013-05-15 14:06:00,
2013-05-15 10:10:00,58.0,48.3,29.86,ESE,117,0.0,0.0,70,0.00,,---,0.00,VWS V14.01,2013-05-15 14:10:00,
2013-05-15 10:11:00,58.0,48.3,29.86,ESE,117,0.0,0.0,70,0.00,,---,0.00,VWS V14.01,2013-05-15 14:11:00,
2013-05-15 10:16:00,59.0,48.5,29.86,SE,130,1.0,2.0,68,0.00,,---,0.00,VWS V14.01,2013-05-15 14:16:00,
2013-05-15 10:21:00,59.9,48.5,29.84,SE,130,0.0,1.0,66,0.00,,---,0.00,VWS V14.01,2013-05-15 14:21:00,
2013-05-15 10:22:00,59.9,48.5,29.84,SE,130,4.0,4.0,66,0.00,,---,0.00,VWS V14.01,2013-05-15 14:22:00,
2013-05-15 10:26:00,60.7,49.7,29.84,SSE,148,4.0,4.0,67,0.00,,---,0.00,VWS V14.01,2013-05-15 14:26:00,
2013-05-15 10:27:00,60.9,49.9,29.84,SSE,148,5.0,5.0,67,0.00,,---,0.00,VWS V14.01,2013-05-15 14:27:00,
2013-05-15 10:31:00,61.3,50.3,29.84,SSE,148,4.0,4.0,67,0.00,,---,0.00,VWS V14.01,2013-05-15 14:31:00,
2013-05-15 10:32:00,61.3,49.9,29.84,SSE,148,0.0,5.0,66,0.00,,---,0.00,VWS V14.01,2013-05-15 14:32:00,
2013-05-15 10:36:00,61.6,50.1,29.83,SSE,148,0.0,0.0,66,0.00,,---,0.00,VWS V14.01,2013-05-15 14:36:00,
2013-05-15 10:37:00,61.8,50.7,29.83,SSE,148,0.0,1.0,67,0.00,,---,0.00,VWS V14.01,2013-05-15 14:37:00,
2013-05-15 10:38:00,61.8,50.3,29.83,SSE,148,0.0,3.0,66,0.00,,---,0.00,VWS V14.01,2013-05-15 14:38:00,
2013-05-15 10:41:00,62.1,51.0,29.83,SSE,148,0.0,1.0,67,0.00,,---,0.00,VWS V14.01,2013-05-15 14:41:00,
2013-05-15 10:42:00,62.1,51.8,29.83,SSE,148,2.0,4.0,69,0.00,,---,0.00,VWS V14.01,2013-05-15 14:42:00,
2013-05-15 10:43:00,62.3,51.6,29.83,SSE,148,1.0,3.0,68,0.00,,---,0.00,VWS V14.01,2013-05-15 14:43:00,
2013-05-15 10:46:00,62.6,52.3,29.83,SSE,148,0.0,0.0,69,0.00,,---,0.00,VWS V14.01,2013-05-15 14:46:00,
2013-05-15 10:47:00,62.7,52.4,29.81,SSE,148,1.0,4.0,69,0.00,,---,0.00,VWS V14.01,2013-05-15 14:47:00,
2013-05-15 10:48:00,62.9,52.6,29.81,SSE,148,0.0,0.0,69,0.00,,---,0.00,VWS V14.01,2013-05-15 14:48:00,
2013-05-15 10:51:00,63.4,53.5,29.81,SSE,148,3.0,3.0,70,0.00,,---,0.00,VWS V14.01,2013-05-15 14:51:00,
2013-05-15 10:52:00,63.5,53.9,29.81,SSE,148,4.0,4.0,71,0.00,,---,0.00,VWS V14.01,2013-05-15 14:52:00,
2013-05-15 10:53:00,63.9,54.3,29.81,SSW,207,4.0,5.0,71,0.00,,---,0.00,VWS V14.01,2013-05-15 14:53:00,
2013-05-15 10:54:00,64.0,53.6,29.81,SSW,207,5.0,5.0,69,0.00,,---,0.00,VWS V14.01,2013-05-15 14:54:00,
2013-05-15 10:56:00,64.5,54.1,29.81,SW,221,6.0,6.0,69,0.00,,---,0.00,VWS V14.01,2013-05-15 14:56:00,
2013-05-15 10:57:00,64.7,53.9,29.81,SW,218,0.0,5.0,68,0.00,,---,0.00,VWS V14.01,2013-05-15 14:57:00,
2013-05-15 10:58:00,64.8,54.0,29.81,SSW,208,3.0,7.0,68,0.00,,---,0.00,VWS V14.01,2013-05-15 14:58:00,
2013-05-15 10:59:00,65.0,54.2,29.81,SSW,208,2.0,7.0,68,0.00,,---,0.00,VWS V14.01,2013-05-15 14:59:00,
2013-05-15 11:01:00,65.8,55.4,29.81,SW,223,3.0,6.0,69,0.00,,---,0.00,VWS V14.01,2013-05-15 15:01:00,
2013-05-15 11:02:00,66.1,56.0,29.80,SW,216,5.0,5.0,70,0.00,,---,0.00,VWS V14.01,2013-05-15 15:02:00,
2013-05-15 11:04:00,66.4,55.1,29.80,South,190,1.0,7.0,67,0.00,,---,0.00,VWS V14.01,2013-05-15 15:04:00,
2013-05-15 11:05:00,66.8,54.7,29.80,SSW,207,3.0,6.0,65,0.00,,---,0.00,VWS V14.01,2013-05-15 15:05:00,
2013-05-15 11:08:00,67.4,54.4,29.80,SSW,200,5.0,7.0,63,0.00,,---,0.00,VWS V14.01,2013-05-15 15:08:00,
2013-05-15 11:09:00,67.8,54.8,29.80,SSW,205,8.0,11.0,63,0.00,,---,0.00,VWS V14.01,2013-05-15 15:09:00,
2013-05-15 11:10:00,68.1,55.0,29.80,South,185,3.0,9.0,63,0.00,,---,0.00,VWS V14.01,2013-05-15 15:10:00,
2013-05-15 11:13:00,68.8,55.7,29.80,SSW,198,10.0,10.0,63,0.00,,---,0.00,VWS V14.01,2013-05-15 15:13:00,
2013-05-15 11:14:00,69.1,56.0,29.80,SSW,195,6.0,8.0,63,0.00,,---,0.00,VWS V14.01,2013-05-15 15:14:00,
2013-05-15 11:15:00,69.4,55.8,29.80,South,189,8.0,8.0,62,0.00,,---,0.00,VWS V14.01,2013-05-15 15:15:00,
2013-05-15 11:18:00,69.9,56.3,29.79,SSW,200,1.0,6.0,62,0.00,,---,0.00,VWS V14.01,2013-05-15 15:18:00,
2013-05-15 11:19:00,70.4,56.8,29.79,SW,215,14.0,15.0,62,0.00,,---,0.00,VWS V14.01,2013-05-15 15:19:00,
2013-05-15 11:20:00,70.8,57.2,29.79,SSW,192,6.0,12.0,62,0.00,,---,0.00,VWS V14.01,2013-05-15 15:20:00,
2013-05-15 11:23:00,71.6,57.5,29.79,SSW,213,6.0,11.0,61,0.00,,---,0.00,VWS V14.01,2013-05-15 15:23:00,
2013-05-15 11:24:00,72.0,58.3,29.79,SSW,196,5.0,18.0,62,0.00,,---,0.00,VWS V14.01,2013-05-15 15:24:00,
2013-05-15 11:25:00,72.1,57.5,29.79,SSW,197,2.0,9.0,60,0.00,,---,0.00,VWS V14.01,2013-05-15 15:25:00,
2013-05-15 11:29:00,73.0,58.8,29.79,South,177,9.0,10.0,61,0.00,,---,0.00,VWS V14.01,2013-05-15 15:29:00,
2013-05-15 11:30:00,73.3,58.1,29.79,SSW,204,3.0,3.0,59,0.00,,---,0.00,VWS V14.01,2013-05-15 15:30:00,
2013-05-15 11:31:00,73.7,58.5,29.79,South,178,2.0,16.0,59,0.00,,---,0.00,VWS V14.01,2013-05-15 15:31:00,
2013-05-15 11:34:00,74.4,58.2,29.77,SW,223,5.0,6.0,57,0.00,,---,0.00,VWS V14.01,2013-05-15 15:34:00,
2013-05-15 11:35:00,74.7,58.0,29.77,SW,219,4.0,5.0,56,0.00,,---,0.00,VWS V14.01,2013-05-15 15:35:00,
2013-05-15 11:36:00,74.9,58.2,29.77,SSW,203,9.0,16.0,56,0.00,,---,0.00,VWS V14.01,2013-05-15 15:36:00,
2013-05-15 11:39:00,75.8,57.5,29.77,SSW,199,3.0,12.0,53,0.00,,---,0.00,VWS V14.01,2013-05-15 15:39:00,
2013-05-15 11:40:00,76.1,58.3,29.77,South,180,5.0,6.0,54,0.00,,---,0.00,VWS V14.01,2013-05-15 15:40:00,
2013-05-15 11:41:00,76.3,59.0,29.77,South,182,15.0,21.0,55,0.00,,---,0.00,VWS V14.01,2013-05-15 15:41:00,
2013-05-15 11:44:00,77.0,59.1,29.77,South,183,5.0,5.0,54,0.00,,---,0.00,VWS V14.01,2013-05-15 15:44:00,
2013-05-15 11:46:00,77.2,58.2,29.77,South,180,4.0,10.0,52,0.00,,---,0.00,VWS V14.01,2013-05-15 15:46:00,
2013-05-15 11:49:00,77.9,58.3,29.77,SSE,147,12.0,15.0,51,0.00,,---,0.00,VWS V14.01,2013-05-15 15:49:00,
2013-05-15 11:51:00,78.1,58.5,29.77,SSW,204,6.0,6.0,51,0.00,,---,0.00,VWS V14.01,2013-05-15 15:51:00,
2013-05-15 11:52:00,78.1,59.6,29.77,SSW,205,2.0,2.0,53,0.00,,---,0.00,VWS V14.01,2013-05-15 15:52:00,
2013-05-15 11:54:00,78.5,58.3,29.77,South,183,9.0,13.0,50,0.00,,---,0.00,VWS V14.01,2013-05-15 15:54:00,
2013-05-15 11:55:00,78.5,58.3,29.77,South,185,1.0,13.0,50,0.00,,---,0.00,VWS V14.01,2013-05-15 15:55:00,
2013-05-15 11:56:00,78.6,59.5,29.77,SSE,149,5.0,10.0,52,0.00,,---,0.00,VWS V14.01,2013-05-15 15:56:00,
2013-05-15 11:57:00,78.6,58.4,29.77,South,182,3.0,6.0,50,0.00,,---,0.00,VWS V14.01,2013-05-15 15:57:00,
2013-05-15 12:00:00,78.8,58.0,29.77,SSW,203,6.0,9.0,49,0.00,,---,0.00,VWS V14.01,2013-05-15 16:00:00,
2013-05-15 12:02:00,79.0,58.8,29.77,SSW,205,13.0,16.0,50,0.00,,---,0.00,VWS V14.01,2013-05-15 16:02:00,
2013-05-15 12:05:00,79.2,58.4,29.76,South,171,6.0,10.0,49,0.00,,---,0.00,VWS V14.01,2013-05-15 16:05:00,
2013-05-15 12:07:00,79.4,58.6,29.76,South,178,7.0,13.0,49,0.00,,---,0.00,VWS V14.01,2013-05-15 16:07:00,
2013-05-15 12:10:00,79.8,59.5,29.76,SSW,213,9.0,15.0,50,0.00,,---,0.00,VWS V14.01,2013-05-15 16:10:00,
2013-05-15 12:12:00,79.9,58.5,29.76,SSW,204,7.0,12.0,48,0.00,,---,0.00,VWS V14.01,2013-05-15 16:12:00,
2013-05-15 12:13:00,80.1,60.4,29.76,SSW,211,4.0,10.0,51,0.00,,---,0.00,VWS V14.01,2013-05-15 16:13:00,
2013-05-15 12:15:00,80.7,61.5,29.76,SW,223,10.0,13.0,52,0.00,,---,0.00,VWS V14.01,2013-05-15 16:15:00,
2013-05-15 12:16:00,80.9,60.0,29.76,SSW,206,2.0,7.0,49,0.00,,---,0.00,VWS V14.01,2013-05-15 16:16:00,
2013-05-15 12:17:00,81.1,59.6,29.75,SSE,160,5.0,10.0,48,0.00,,---,0.00,VWS V14.01,2013-05-15 16:17:00,
2013-05-15 12:18:00,81.1,59.6,29.75,South,179,2.0,10.0,48,0.00,,---,0.00,VWS V14.01,2013-05-15 16:18:00,
2013-05-15 12:20:00,81.4,59.3,29.75,South,169,3.0,5.0,47,0.00,,---,0.00,VWS V14.01,2013-05-15 16:20:00,
2013-05-15 12:21:00,81.6,60.0,29.75,SW,221,0.0,7.0,48,0.00,,---,0.00,VWS V14.01,2013-05-15 16:21:00,
2013-05-15 12:22:00,81.6,60.0,29.75,SW,221,0.0,1.0,48,0.00,,---,0.00,VWS V14.01,2013-05-15 16:22:00,
2013-05-15 12:23:00,81.8,59.6,29.75,SW,221,6.0,6.0,47,0.00,,---,0.00,VWS V14.01,2013-05-15 16:23:00,
2013-05-15 12:25:00,82.2,60.6,29.75,SSW,203,11.0,16.0,48,0.00,,---,0.00,VWS V14.01,2013-05-15 16:25:00,
2013-05-15 12:27:00,82.6,59.8,29.75,SSW,199,7.0,7.0,46,0.00,,---,0.00,VWS V14.01,2013-05-15 16:27:00,
2013-05-15 12:28:00,82.6,59.8,29.75,SSE,149,5.0,5.0,46,0.00,,---,0.00,VWS V14.01,2013-05-15 16:28:00,
2013-05-15 12:31:00,82.8,59.3,29.75,SW,214,0.0,9.0,45,0.00,,---,0.00,VWS V14.01,2013-05-15 16:31:00,
2013-05-15 12:32:00,82.8,59.3,29.74,South,170,2.0,12.0,45,0.00,,---,0.00,VWS V14.01,2013-05-15 16:32:00,
2013-05-15 12:34:00,82.8,60.5,29.74,South,186,15.0,15.0,47,0.00,,---,0.00,VWS V14.01,2013-05-15 16:34:00,
2013-05-15 12:37:00,83.0,59.5,29.74,SSW,196,5.0,12.0,45,0.00,,---,0.00,VWS V14.01,2013-05-15 16:37:00,
2013-05-15 12:39:00,83.0,60.1,29.74,South,184,6.0,6.0,46,0.00,,---,0.00,VWS V14.01,2013-05-15 16:39:00,
2013-05-15 12:42:00,83.2,59.7,29.74,South,181,5.0,5.0,45,0.00,,---,0.00,VWS V14.01,2013-05-15 16:42:00,
2013-05-15 12:43:00,83.2,59.7,29.74,South,171,3.0,10.0,45,0.00,,---,0.00,VWS V14.01,2013-05-15 16:43:00,
2013-05-15 12:44:00,83.4,61.7,29.74,South,186,6.0,10.0,48,0.00,,---,0.00,VWS V14.01,2013-05-15 16:44:00,
2013-05-15 12:47:00,83.4,59.8,29.74,SE,129,6.0,7.0,45,0.00,,---,0.00,VWS V14.01,2013-05-15 16:47:00,
2013-05-15 12:48:00,83.4,60.5,29.74,South,188,9.0,13.0,46,0.00,,---,0.00,VWS V14.01,2013-05-15 16:48:00,
2013-05-15 12:49:00,83.4,61.1,29.74,SW,236,0.0,2.0,47,0.00,,---,0.00,VWS V14.01,2013-05-15 16:49:00,
2013-05-15 12:52:00,83.6,61.3,29.74,ESE,112,2.0,5.0,47,0.00,,---,0.00,VWS V14.01,2013-05-15 16:52:00,
2013-05-15 12:53:00,83.6,61.8,29.74,South,174,6.0,9.0,48,0.00,,---,0.00,VWS V14.01,2013-05-15 16:53:00,
2013-05-15 12:54:00,83.6,60.0,29.74,South,171,11.0,11.0,45,0.00,,---,0.00,VWS V14.01,2013-05-15 16:54:00,
2013-05-15 12:57:00,83.8,62.0,29.74,SSW,193,0.0,6.0,48,0.00,,---,0.00,VWS V14.01,2013-05-15 16:57:00,
2013-05-15 12:59:00,83.8,61.4,29.74,SSW,193,0.0,4.0,47,0.00,,---,0.00,VWS V14.01,2013-05-15 16:59:00,
2013-05-15 13:03:00,84.1,62.3,29.73,SSW,192,3.0,5.0,48,0.00,,---,0.00,VWS V14.01,2013-05-15 17:03:00,
2013-05-15 13:04:00,84.1,62.3,29.73,SSE,157,6.0,6.0,48,0.00,,---,0.00,VWS V14.01,2013-05-15 17:04:00,
2013-05-15 13:05:00,84.1,61.1,29.73,SE,146,5.0,7.0,46,0.00,,---,0.00,VWS V14.01,2013-05-15 17:05:00,
2013-05-15 13:08:00,84.3,61.9,29.73,South,171,11.0,11.0,47,0.00,,---,0.00,VWS V14.01,2013-05-15 17:08:00,
2013-05-15 13:09:00,84.5,61.5,29.73,South,171,2.0,12.0,46,0.00,,---,0.00,VWS V14.01,2013-05-15 17:09:00,
2013-05-15 13:10:00,84.5,61.5,29.73,ESE,119,2.0,9.0,46,0.00,,---,0.00,VWS V14.01,2013-05-15 17:10:00,
2013-05-15 13:13:00,84.5,62.1,29.73,SE,129,0.0,4.0,47,0.00,,---,0.00,VWS V14.01,2013-05-15 17:13:00,
2013-05-15 13:14:00,84.5,62.7,29.73,SE,134,0.0,6.0,48,0.00,,---,0.00,VWS V14.01,2013-05-15 17:14:00,
2013-05-15 13:15:00,84.5,61.5,29.73,SE,132,6.0,10.0,46,0.00,,---,0.00,VWS V14.01,2013-05-15 17:15:00,
2013-05-15 13:18:00,84.5,62.1,29.72,SE,140,1.0,12.0,47,0.00,,---,0.00,VWS V14.01,2013-05-15 17:18:00,
2013-05-15 13:19:00,84.7,61.7,29.72,South,178,7.0,10.0,46,0.00,,---,0.00,VWS V14.01,2013-05-15 17:19:00,
2013-05-15 13:20:00,84.7,61.0,29.72,SSW,196,9.0,10.0,45,0.00,,---,0.00,VWS V14.01,2013-05-15 17:20:00,
2013-05-15 13:21:00,84.7,60.4,29.72,SSE,155,4.0,13.0,44,0.00,,---,0.00,VWS V14.01,2013-05-15 17:21:00,
2013-05-15 13:24:00,84.9,61.2,29.72,SSE,150,4.0,4.0,45,0.00,,---,0.00,VWS V14.01,2013-05-15 17:24:00,
2013-05-15 13:25:00,84.9,61.2,29.72,SSE,150,2.0,4.0,45,0.00,,---,0.00,VWS V14.01,2013-05-15 17:25:00,
2013-05-15 13:26:00,85.1,62.6,29.72,SSE,147,7.0,7.0,47,0.00,,---,0.00,VWS V14.01,2013-05-15 17:26:00,
2013-05-15 13:29:00,85.1,61.4,29.72,ESE,108,0.0,4.0,45,0.00,,---,0.00,VWS V14.01,2013-05-15 17:29:00,
2013-05-15 13:30:00,85.1,62.0,29.72,SE,144,2.0,5.0,46,0.00,,---,0.00,VWS V14.01,2013-05-15 17:30:00,
2013-05-15 13:32:00,85.3,61.6,29.72,South,182,3.0,8.0,45,0.00,,---,0.00,VWS V14.01,2013-05-15 17:32:00,
2013-05-15 13:34:00,85.5,61.8,29.73,South,183,6.0,6.0,45,0.00,,---,0.00,VWS V14.01,2013-05-15 17:34:00,
2013-05-15 13:35:00,85.5,60.5,29.73,SE,132,5.0,6.0,43,0.00,,---,0.00,VWS V14.01,2013-05-15 17:35:00,
2013-05-15 13:37:00,85.7,60.7,29.73,SE,132,0.0,0.0,43,0.00,,---,0.00,VWS V14.01,2013-05-15 17:37:00,
2013-05-15 13:39:00,85.9,60.2,29.73,SE,135,6.0,10.0,42,0.00,,---,0.00,VWS V14.01,2013-05-15 17:39:00,
2013-05-15 13:40:00,85.9,60.2,29.73,SE,135,0.0,5.0,42,0.00,,---,0.00,VWS V14.01,2013-05-15 17:40:00,
2013-05-15 13:43:00,86.1,60.3,29.73,SSE,150,0.0,5.0,42,0.00,,---,0.00,VWS V14.01,2013-05-15 17:43:00,
2013-05-15 13:44:00,86.3,61.2,29.73,South,174,6.0,7.0,43,0.00,,---,0.00,VWS V14.01,2013-05-15 17:44:00,
2013-05-15 13:45:00,86.3,61.2,29.73,South,173,2.0,3.0,43,0.00,,---,0.00,VWS V14.01,2013-05-15 17:45:00,
2013-05-15 13:48:00,86.5,60.0,29.72,South,187,2.0,5.0,41,0.00,,---,0.00,VWS V14.01,2013-05-15 17:48:00,
2013-05-15 13:49:00,86.7,60.2,29.72,SSE,167,3.0,6.0,41,0.00,,---,0.00,VWS V14.01,2013-05-15 17:49:00,
2013-05-15 13:50:00,86.7,60.9,29.72,South,180,1.0,6.0,42,0.00,,---,0.00,VWS V14.01,2013-05-15 17:50:00,
2013-05-15 13:53:00,87.0,59.8,29.72,South,180,0.0,2.0,40,0.00,,---,0.00,VWS V14.01,2013-05-15 17:53:00,
2013-05-15 13:55:00,87.4,60.8,29.72,SW,217,3.0,4.0,41,0.00,,---,0.00,VWS V14.01,2013-05-15 17:55:00,
2013-05-15 13:56:00,87.4,60.8,29.72,SW,217,1.0,1.0,41,0.00,,---,0.00,VWS V14.01,2013-05-15 17:56:00,
2013-05-15 13:59:00,87.6,60.3,29.72,SW,217,1.0,2.0,40,0.00,,---,0.00,VWS V14.01,2013-05-15 17:59:00,
2013-05-15 14:00:00,87.6,62.4,29.72,NNW,328,9.0,12.0,43,0.00,,---,0.00,VWS V14.01,2013-05-15 18:00:00,
2013-05-15 14:01:00,87.8,62.5,29.72,NW,326,9.0,11.0,43,0.00,,---,0.00,VWS V14.01,2013-05-15 18:01:00,
2013-05-15 14:04:00,87.4,62.2,29.71,NNW,347,7.0,13.0,43,0.00,,---,0.00,VWS V14.01,2013-05-15 18:04:00,
2013-05-15 14:05:00,87.2,62.0,29.71,NE,49,4.0,4.0,43,0.00,,---,0.00,VWS V14.01,2013-05-15 18:05:00,
2013-05-15 14:06:00,87.2,62.0,29.71,ENE,73,6.0,12.0,43,0.00,,---,0.00,VWS V14.01,2013-05-15 18:06:00,
2013-05-15 14:10:00,86.3,61.8,29.71,NE,41,9.0,9.0,44,0.00,,---,0.00,VWS V14.01,2013-05-15 18:10:00,
2013-05-15 14:11:00,86.1,61.7,29.71,NE,52,9.0,9.0,44,0.00,,---,0.00,VWS V14.01,2013-05-15 18:11:00,
2013-05-15 14:15:00,85.7,61.9,29.71,ENE,57,1.0,5.0,45,0.00,,---,0.00,VWS V14.01,2013-05-15 18:15:00,
2013-05-15 14:16:00,85.5,61.8,29.71,ENE,72,6.0,10.0,45,0.00,,---,0.00,VWS V14.01,2013-05-15 18:16:00,
2013-05-15 14:17:00,85.5,61.8,29.71,ENE,72,5.0,10.0,45,0.00,,---,0.00,VWS V14.01,2013-05-15 18:17:00,
2013-05-15 14:21:00,85.3,62.8,29.72,NE,36,1.0,3.0,47,0.00,,---,0.00,VWS V14.01,2013-05-15 18:21:00,
2013-05-15 14:22:00,85.1,62.0,29.72,ENE,74,8.0,10.0,46,0.00,,---,0.00,VWS V14.01,2013-05-15 18:22:00,
2013-05-15 14:26:00,85.1,63.2,29.72,East,80,9.0,9.0,48,0.00,,---,0.00,VWS V14.01,2013-05-15 18:26:00,
2013-05-15 14:27:00,84.9,63.0,29.72,ESE,107,7.0,7.0,48,0.00,,---,0.00,VWS V14.01,2013-05-15 18:27:00,
2013-05-15 14:28:00,84.9,63.0,29.72,East,90,5.0,7.0,48,0.00,,---,0.00,VWS V14.01,2013-05-15 18:28:00,
2013-05-15 14:31:00,84.7,62.9,29.72,East,91,10.0,10.0,48,0.00,,---,0.00,VWS V14.01,2013-05-15 18:31:00,
2013-05-15 14:33:00,84.7,64.0,29.70,East,88,3.0,13.0,50,0.00,,---,0.00,VWS V14.01,2013-05-15 18:33:00,
2013-05-15 14:36:00,84.5,63.3,29.70,NNE,30,4.0,7.0,49,0.00,,---,0.00,VWS V14.01,2013-05-15 18:36:00,
2013-05-15 14:37:00,84.5,63.3,29.70,NE,52,4.0,8.0,49,0.00,,---,0.00,VWS V14.01,2013-05-15 18:37:00,
2013-05-15 14:38:00,84.3,63.7,29.70,NE,47,0.0,6.0,50,0.00,,---,0.00,VWS V14.01,2013-05-15 18:38:00,
2013-05-15 14:41:00,84.0,62.8,29.70,NNE,33,9.0,9.0,49,0.00,,---,0.00,VWS V14.01,2013-05-15 18:41:00,
2013-05-15 14:42:00,84.0,62.2,29.70,NE,52,7.0,7.0,48,0.00,,---,0.00,VWS V14.01,2013-05-15 18:42:00,
2013-05-15 14:43:00,83.6,62.4,29.70,ENE,65,6.0,10.0,49,0.00,,---,0.00,VWS V14.01,2013-05-15 18:43:00,
2013-05-15 14:44:00,83.6,62.4,29.70,ENE,69,4.0,10.0,49,0.00,,---,0.00,VWS V14.01,2013-05-15 18:44:00,
2013-05-15 14:47:00,83.2,62.1,29.70,East,93,6.0,7.0,49,0.00,,---,0.00,VWS V14.01,2013-05-15 18:47:00,
2013-05-15 14:49:00,83.0,64.1,29.71,East,89,9.0,9.0,53,0.00,,---,0.00,VWS V14.01,2013-05-15 18:49:00,
2013-05-15 14:52:00,82.6,62.1,29.71,ENE,66,7.0,10.0,50,0.00,,---,0.00,VWS V14.01,2013-05-15 18:52:00,
2013-05-15 14:54:00,82.4,61.9,29.71,ESE,122,4.0,8.0,50,0.00,,---,0.00,VWS V14.01,2013-05-15 18:54:00,
2013-05-15 14:57:00,82.0,62.1,29.71,ESE,102,3.0,7.0,51,0.00,,---,0.00,VWS V14.01,2013-05-15 18:57:00,
2013-05-15 14:59:00,81.8,62.5,29.71,East,96,12.0,12.0,52,0.00,,---,0.00,VWS V14.01,2013-05-15 18:59:00,
2013-05-15 15:03:00,81.6,62.3,29.70,ENE,61,4.0,6.0,52,0.00,,---,0.00,VWS V14.01,2013-05-15 19:03:00,
2013-05-15 15:04:00,81.4,62.1,29.70,East,86,10.0,11.0,52,0.00,,---,0.00,VWS V14.01,2013-05-15 19:04:00,
2013-05-15 15:08:00,81.1,62.4,29.70,East,86,5.0,5.0,53,0.00,,---,0.00,VWS V14.01,2013-05-15 19:08:00,
2013-05-15 15:09:00,81.1,62.4,29.70,East,85,8.0,9.0,53,0.00,,---,0.00,VWS V14.01,2013-05-15 19:09:00,
2013-05-15 15:13:00,80.9,61.6,29.70,ESE,103,1.0,3.0,52,0.00,,---,0.00,VWS V14.01,2013-05-15 19:13:00,
2013-05-15 15:15:00,80.9,63.2,29.70,South,173,4.0,5.0,55,0.00,,---,0.00,VWS V14.01,2013-05-15 19:15:00,
2013-05-15 15:18:00,80.7,62.0,29.70,East,99,6.0,9.0,53,0.00,,---,0.00,VWS V14.01,2013-05-15 19:18:00,
2013-05-15 15:19:00,80.7,61.5,29.70,East,96,5.0,9.0,52,0.00,,---,0.00,VWS V14.01,2013-05-15 19:19:00,
2013-05-15 15:20:00,80.7,62.0,29.70,ESE,110,3.0,10.0,53,0.00,,---,0.00,VWS V14.01,2013-05-15 19:20:00,
2013-05-15 15:24:00,80.7,62.5,29.70,ESE,103,6.0,11.0,54,0.00,,---,0.00,VWS V14.01,2013-05-15 19:24:00,
2013-05-15 15:25:00,80.7,62.5,29.70,ESE,123,5.0,10.0,54,0.00,,---,0.00,VWS V14.01,2013-05-15 19:25:00,
2013-05-15 15:26:00,80.7,62.5,29.70,ESE,117,10.0,10.0,54,0.00,,---,0.00,VWS V14.01,2013-05-15 19:26:00,
2013-05-15 15:29:00,80.7,62.5,29.70,ESE,113,0.0,4.0,54,0.00,,---,0.00,VWS V14.01,2013-05-15 19:29:00,
2013-05-15 15:30:00,80.7,63.0,29.70,East,91,9.0,9.0,55,0.00,,---,0.00,VWS V14.01,2013-05-15 19:30:00,
2013-05-15 15:31:00,80.7,62.5,29.70,ENE,69,3.0,5.0,54,0.00,,---,0.00,VWS V14.01,2013-05-15 19:31:00,
2013-05-15 15:34:00,80.7,63.0,29.69,East,90,5.0,7.0,55,0.00,,---,0.00,VWS V14.01,2013-05-15 19:34:00,
2013-05-15 15:35:00,80.7,63.0,29.69,East,92,7.0,11.0,55,0.00,,---,0.00,VWS V14.01,2013-05-15 19:35:00,
2013-05-15 15:36:00,80.7,63.0,29.69,East,83,6.0,6.0,55,0.00,,---,0.00,VWS V14.01,2013-05-15 19:36:00,
2013-05-15 15:39:00,80.7,63.0,29.69,ESE,107,4.0,6.0,55,0.00,,---,0.00,VWS V14.01,2013-05-15 19:39:00,
2013-05-15 15:40:00,80.7,62.5,29.69,East,97,6.0,6.0,54,0.00,,---,0.00,VWS V14.01,2013-05-15 19:40:00,
2013-05-15 15:42:00,80.7,62.5,29.69,SSE,156,6.0,6.0,54,0.00,,---,0.00,VWS V14.01,2013-05-15 19:42:00,
2013-05-15 15:44:00,80.7,62.5,29.69,SSE,155,5.0,9.0,54,0.00,,---,0.00,VWS V14.01,2013-05-15 19:44:00,
2013-05-15 15:45:00,80.7,63.0,29.69,SE,127,4.0,11.0,55,0.00,,---,0.00,VWS V14.01,2013-05-15 19:45:00,
2013-05-15 15:48:00,80.9,63.2,29.68,ESE,106,5.0,5.0,55,0.00,,---,0.00,VWS V14.01,2013-05-15 19:48:00,
2013-05-15 15:49:00,80.9,63.2,29.68,ENE,67,2.0,7.0,55,0.00,,---,0.00,VWS V14.01,2013-05-15 19:49:00,
2013-05-15 15:50:00,80.9,63.2,29.68,East,84,0.0,4.0,55,0.00,,---,0.00,VWS V14.01,2013-05-15 19:50:00,
2013-05-15 15:53:00,80.9,63.2,29.68,ESE,105,7.0,7.0,55,0.00,,---,0.00,VWS V14.01,2013-05-15 19:53:00,
2013-05-15 15:54:00,80.9,62.7,29.68,East,88,3.0,6.0,54,0.00,,---,0.00,VWS V14.01,2013-05-15 19:54:00,
2013-05-15 15:55:00,81.1,63.9,29.68,East,90,3.0,5.0,56,0.00,,---,0.00,VWS V14.01,2013-05-15 19:55:00,
2013-05-15 15:59:00,81.2,64.0,29.68,ESE,117,3.0,4.0,56,0.00,,---,0.00,VWS V14.01,2013-05-15 19:59:00,
2013-05-15 16:00:00,81.2,63.0,29.68,ENE,74,5.0,7.0,54,0.00,,---,0.00,VWS V14.01,2013-05-15 20:00:00,
2013-05-15 16:01:00,81.2,63.0,29.68,ENE,75,4.0,7.0,54,0.00,,---,0.00,VWS V14.01,2013-05-15 20:01:00,
2013-05-15 16:04:00,81.4,63.2,29.67,ENE,69,0.0,3.0,54,0.00,,---,0.00,VWS V14.01,2013-05-15 20:04:00,
2013-05-15 16:05:00,81.4,63.2,29.67,ESE,105,3.0,5.0,54,0.00,,---,0.00,VWS V14.01,2013-05-15 20:05:00,
2013-05-15 16:06:00,81.4,63.2,29.67,ESE,105,1.0,5.0,54,0.00,,---,0.00,VWS V14.01,2013-05-15 20:06:00,
2013-05-15 16:07:00,81.6,62.8,29.67,SE,135,3.0,5.0,53,0.00,,---,0.00,VWS V14.01,2013-05-15 20:07:00,
2013-05-15 16:09:00,81.8,64.1,29.67,SE,128,2.0,3.0,55,0.00,,---,0.00,VWS V14.01,2013-05-15 20:09:00,
2013-05-15 16:10:00,81.8,64.1,29.67,SE,136,2.0,3.0,55,0.00,,---,0.00,VWS V14.01,2013-05-15 20:10:00,
2013-05-15 16:11:00,82.0,64.3,29.67,SE,136,0.0,0.0,55,0.00,,---,0.00,VWS V14.01,2013-05-15 20:11:00,
2013-05-15 16:13:00,82.2,65.0,29.67,ESE,123,2.0,5.0,56,0.00,,---,0.00,VWS V14.01,2013-05-15 20:13:00,
2013-05-15 16:14:00,82.2,63.9,29.67,ESE,104,5.0,6.0,54,0.00,,---,0.00,VWS V14.01,2013-05-15 20:14:00,
2013-05-15 16:15:00,82.4,63.6,29.67,ESE,115,2.0,4.0,53,0.00,,---,0.00,VWS V14.01,2013-05-15 20:15:00,
2013-05-15 16:16:00,82.4,63.0,29.67,ESE,115,0.0,0.0,52,0.00,,---,0.00,VWS V14.01,2013-05-15 20:16:00,
2013-05-15 16:18:00,82.6,63.8,29.65,SSE,161,0.0,4.0,53,0.00,,---,0.00,VWS V14.01,2013-05-15 20:18:00,
2013-05-15 16:19:00,82.8,63.9,29.65,SE,126,4.0,4.0,53,0.00,,---,0.00,VWS V14.01,2013-05-15 20:19:00,
2013-05-15 16:21:00,82.8,63.9,29.65,SE,126,2.0,4.0,53,0.00,,---,0.00,VWS V14.01,2013-05-15 20:21:00,
2013-05-15 16:23:00,83.0,64.7,29.65,SE,126,4.0,4.0,54,0.00,,---,0.00,VWS V14.01,2013-05-15 20:23:00,
2013-05-15 16:25:00,83.2,63.2,29.65,ENE,78,3.0,9.0,51,0.00,,---,0.00,VWS V14.01,2013-05-15 20:25:00,
2013-05-15 16:26:00,83.2,63.2,29.65,East,82,3.0,4.0,51,0.00,,---,0.00,VWS V14.01,2013-05-15 20:26:00,
2013-05-15 16:28:00,83.4,64.0,29.65,East,82,2.0,3.0,52,0.00,,---,0.00,VWS V14.01,2013-05-15 20:28:00,
2013-05-15 16:31:00,83.4,64.5,29.65,NNE,15,4.0,5.0,53,0.00,,---,0.00,VWS V14.01,2013-05-15 20:31:00,
2013-05-15 16:34:00,83.8,64.3,29.65,NE,46,3.0,4.0,52,0.00,,---,0.00,VWS V14.01,2013-05-15 20:34:00,
2013-05-15 16:36:00,83.8,64.3,29.65,NE,46,3.0,4.0,52,0.00,,---,0.00,VWS V14.01,2013-05-15 20:36:00,
2013-05-15 16:39:00,84.0,63.4,29.65,NE,46,0.0,1.0,50,0.00,,---,0.00,VWS V14.01,2013-05-15 20:39:00,
2013-05-15 16:41:00,84.1,64.6,29.65,NE,46,0.0,0.0,52,0.00,,---,0.00,VWS V14.01,2013-05-15 20:41:00,
2013-05-15 16:44:00,84.1,62.9,29.65,SE,146,0.0,1.0,49,0.00,,---,0.00,VWS V14.01,2013-05-15 20:44:00,
2013-05-15 16:46:00,84.3,63.1,29.65,North,355,1.0,7.0,49,0.00,,---,0.00,VWS V14.01,2013-05-15 20:46:00,
2013-05-15 16:48:00,84.5,60.8,29.63,SSW,213,6.0,11.0,45,0.00,,---,0.00,VWS V14.01,2013-05-15 20:48:00,
2013-05-15 16:50:00,84.7,55.6,29.63,SSW,198,1.0,13.0,37,0.00,,---,0.00,VWS V14.01,2013-05-15 20:50:00,
2013-05-15 16:51:00,85.1,53.6,29.63,SSW,207,0.0,3.0,34,0.00,,---,0.00,VWS V14.01,2013-05-15 20:51:00,
2013-05-15 16:52:00,85.1,53.6,29.63,SSW,207,0.0,0.0,34,0.00,,---,0.00,VWS V14.01,2013-05-15 20:52:00,
2013-05-15 16:53:00,85.3,52.1,29.63,WNW,292,2.0,9.0,32,0.00,,---,0.00,VWS V14.01,2013-05-15 20:53:00,
2013-05-15 16:55:00,85.5,52.3,29.63,West,281,2.0,7.0,32,0.00,,---,0.00,VWS V14.01,2013-05-15 20:55:00,
2013-05-15 16:56:00,85.9,51.8,29.63,SW,233,5.0,9.0,31,0.00,,---,0.00,VWS V14.01,2013-05-15 20:56:00,
2013-05-15 16:57:00,86.1,52.0,29.63,South,191,10.0,10.0,31,0.00,,---,0.00,VWS V14.01,2013-05-15 20:57:00,
2013-05-15 16:58:00,86.3,51.2,29.63,West,263,6.0,13.0,30,0.00,,---,0.00,VWS V14.01,2013-05-15 20:58:00,
2013-05-15 17:00:00,86.7,49.7,29.63,WSW,251,2.0,9.0,28,0.00,,---,0.00,VWS V14.01,2013-05-15 21:00:00,
2013-05-15 17:02:00,87.0,50.0,29.63,SW,230,14.0,14.0,28,0.00,,---,0.00,VWS V14.01,2013-05-15 21:02:00,
2013-05-15 17:05:00,87.6,50.5,29.63,South,186,7.0,11.0,28,0.00,,---,0.00,VWS V14.01,2013-05-15 21:05:00,
2013-05-15 17:07:00,88.0,50.8,29.63,SW,231,11.0,11.0,28,0.00,,---,0.00,VWS V14.01,2013-05-15 21:07:00,
2013-05-15 17:08:00,88.0,50.8,29.63,SW,225,13.0,23.0,28,0.00,,---,0.00,VWS V14.01,2013-05-15 21:08:00,
2013-05-15 17:10:00,88.2,49.0,29.63,West,261,3.0,5.0,26,0.00,,---,0.00,VWS V14.01,2013-05-15 21:10:00,
2013-05-15 17:12:00,88.4,49.2,29.63,WNW,292,2.0,3.0,26,0.00,,---,0.00,VWS V14.01,2013-05-15 21:12:00,
2013-05-15 17:13:00,88.4,50.2,29.63,West,274,4.0,9.0,27,0.00,,---,0.00,VWS V14.01,2013-05-15 21:13:00,
2013-05-15 17:15:00,88.4,50.2,29.63,West,270,11.0,14.0,27,0.00,,---,0.00,VWS V14.01,2013-05-15 21:15:00,
2013-05-15 17:17:00,88.6,50.4,29.63,SW,226,12.0,22.0,27,0.00,,---,0.00,VWS V14.01,2013-05-15 21:17:00,
2013-05-15 17:18:00,88.6,50.4,29.63,WNW,300,10.0,15.0,27,0.00,,---,0.00,VWS V14.01,2013-05-15 21:18:00,
2013-05-15 17:20:00,88.6,49.4,29.63,SW,222,10.0,15.0,26,0.00,,---,0.00,VWS V14.01,2013-05-15 21:20:00,
2013-05-15 17:22:00,88.6,51.4,29.63,SW,232,4.0,4.0,28,0.00,,---,0.00,VWS V14.01,2013-05-15 21:22:00,
2013-05-15 17:23:00,88.6,49.4,29.63,SW,230,1.0,11.0,26,0.00,,---,0.00,VWS V14.01,2013-05-15 21:23:00,
2013-05-15 17:26:00,88.6,50.4,29.63,SW,236,3.0,14.0,27,0.00,,---,0.00,VWS V14.01,2013-05-15 21:26:00,
2013-05-15 17:27:00,88.6,50.4,29.63,SW,220,5.0,11.0,27,0.00,,---,0.00,VWS V14.01,2013-05-15 21:27:00,
2013-05-15 17:28:00,88.6,49.4,29.63,SW,227,0.0,10.0,26,0.00,,---,0.00,VWS V14.01,2013-05-15 21:28:00,
2013-05-15 17:31:00,88.6,49.4,29.63,WSW,240,6.0,15.0,26,0.00,,---,0.00,VWS V14.01,2013-05-15 21:31:00,
2013-05-15 17:33:00,88.6,49.4,29.63,West,269,6.0,16.0,26,0.00,,---,0.00,VWS V14.01,2013-05-15 21:33:00,
2013-05-15 17:34:00,88.6,51.4,29.63,WSW,247,7.0,16.0,28,0.00,,---,0.00,VWS V14.01,2013-05-15 21:34:00,
2013-05-15 17:36:00,88.6,50.4,29.63,SSW,204,0.0,1.0,27,0.00,,---,0.00,VWS V14.01,2013-05-15 21:36:00,
2013-05-15 17:38:00,88.6,49.4,29.63,SW,219,5.0,9.0,26,0.00,,---,0.00,VWS V14.01,2013-05-15 21:38:00,
2013-05-15 17:39:00,88.6,49.4,29.63,WSW,257,12.0,12.0,26,0.00,,---,0.00,VWS V14.01,2013-05-15 21:39:00,
2013-05-15 17:41:00,88.6,49.4,29.63,SSW,198,2.0,4.0,26,0.00,,---,0.00,VWS V14.01,2013-05-15 21:41:00,
2013-05-15 17:42:00,88.6,50.4,29.63,SW,217,7.0,13.0,27,0.00,,---,0.00,VWS V14.01,2013-05-15 21:42:00,
2013-05-15 17:43:00,88.6,50.4,29.63,WNW,292,12.0,14.0,27,0.00,,---,0.00,VWS V14.01,2013-05-15 21:43:00,
2013-05-15 17:44:00,88.4,50.2,29.63,WSW,254,17.0,17.0,27,0.00,,---,0.00,VWS V14.01,2013-05-15 21:44:00,
2013-05-15 17:46:00,88.4,49.2,29.63,WSW,248,3.0,10.0,26,0.00,,---,0.00,VWS V14.01,2013-05-15 21:46:00,
2013-05-15 17:47:00,88.4,49.2,29.63,SW,236,10.0,14.0,26,0.00,,---,0.00,VWS V14.01,2013-05-15 21:47:00,
2013-05-15 17:48:00,88.4,50.2,29.63,WSW,239,10.0,11.0,27,0.00,,---,0.00,VWS V14.01,2013-05-15 21:48:00,
2013-05-15 17:49:00,88.4,49.2,29.63,SSW,198,2.0,4.0,26,0.00,,---,0.00,VWS V14.01,2013-05-15 21:49:00,
2013-05-15 17:52:00,88.2,49.0,29.63,WSW,238,2.0,9.0,26,0.00,,---,0.00,VWS V14.01,2013-05-15 21:52:00,
2013-05-15 17:53:00,88.2,49.0,29.63,WSW,242,0.0,3.0,26,0.00,,---,0.00,VWS V14.01,2013-05-15 21:53:00,
2013-05-15 17:55:00,88.2,50.0,29.63,WSW,242,7.0,7.0,27,0.00,,---,0.00,VWS V14.01,2013-05-15 21:55:00,
2013-05-15 17:57:00,88.2,49.0,29.63,West,279,3.0,4.0,26,0.00,,---,0.00,VWS V14.01,2013-05-15 21:57:00,
2013-05-15 17:58:00,88.2,50.0,29.63,WSW,250,7.0,12.0,27,0.00,,---,0.00,VWS V14.01,2013-05-15 21:58:00,
2013-05-15 18:00:00,88.2,50.0,29.63,WSW,251,15.0,15.0,27,0.00,,---,0.00,VWS V14.01,2013-05-15 22:00:00,
2013-05-15 18:02:00,88.2,50.0,29.63,WNW,297,2.0,10.0,27,0.00,,---,0.00,VWS V14.01,2013-05-15 22:02:00,
2013-05-15 18:03:00,88.2,51.0,29.63,West,267,0.0,5.0,28,0.00,,---,0.00,VWS V14.01,2013-05-15 22:03:00,
2013-05-15 18:05:00,88.2,51.0,29.63,NNW,332,1.0,6.0,28,0.00,,---,0.00,VWS V14.01,2013-05-15 22:05:00,
2013-05-15 18:07:00,88.2,50.0,29.63,WNW,288,7.0,7.0,27,0.00,,---,0.00,VWS V14.01,2013-05-15 22:07:00,
2013-05-15 18:08:00,88.2,50.0,29.63,West,267,6.0,7.0,27,0.00,,---,0.00,VWS V14.01,2013-05-15 22:08:00,
2013-05-15 18:10:00,88.2,50.0,29.63,SW,223,3.0,7.0,27,0.00,,---,0.00,VWS V14.01,2013-05-15 22:10:00,
2013-05-15 18:12:00,88.0,49.9,29.63,NNE,20,5.0,6.0,27,0.00,,---,0.00,VWS V14.01,2013-05-15 22:12:00,
2013-05-15 18:13:00,88.0,49.9,29.63,NW,315,5.0,6.0,27,0.00,,---,0.00,VWS V14.01,2013-05-15 22:13:00,
2013-05-15 18:15:00,88.0,50.8,29.63,NNW,330,6.0,10.0,28,0.00,,---,0.00,VWS V14.01,2013-05-15 22:15:00,
2013-05-15 18:17:00,88.0,50.8,29.63,WNW,286,6.0,19.0,28,0.00,,---,0.00,VWS V14.01,2013-05-15 22:17:00,
2013-05-15 18:18:00,87.8,49.7,29.63,West,281,13.0,13.0,27,0.00,,---,0.00,VWS V14.01,2013-05-15 22:18:00,
2013-05-15 18:19:00,87.8,49.7,29.63,West,267,15.0,15.0,27,0.00,,---,0.00,VWS V14.01,2013-05-15 22:19:00,
2013-05-15 18:20:00,87.8,49.7,29.63,SW,219,3.0,6.0,27,0.00,,---,0.00,VWS V14.01,2013-05-15 22:20:00,
2013-05-15 18:23:00,87.8,50.7,29.63,NNW,337,1.0,4.0,28,0.00,,---,0.00,VWS V14.01,2013-05-15 22:23:00,
2013-05-15 18:24:00,87.8,49.7,29.63,WNW,297,0.0,1.0,27,0.00,,---,0.00,VWS V14.01,2013-05-15 22:24:00,
2013-05-15 18:26:00,87.8,50.7,29.63,WNW,301,2.0,5.0,28,0.00,,---,0.00,VWS V14.01,2013-05-15 22:26:00,
2013-05-15 18:28:00,87.8,50.7,29.63,NW,305,6.0,7.0,28,0.00,,---,0.00,VWS V14.01,2013-05-15 22:28:00,
2013-05-15 18:29:00,87.6,50.5,29.63,NW,320,3.0,6.0,28,0.00,,---,0.00,VWS V14.01,2013-05-15 22:29:00,
2013-05-15 18:31:00,87.6,50.5,29.63,West,278,0.0,2.0,28,0.00,,---,0.00,VWS V14.01,2013-05-15 22:31:00,
2013-05-15 18:33:00,87.6,50.5,29.63,SE,126,2.0,4.0,28,0.00,,---,0.00,VWS V14.01,2013-05-15 22:33:00,
2013-05-15 18:34:00,87.6,50.5,29.63,SW,236,3.0,7.0,28,0.00,,---,0.00,VWS V14.01,2013-05-15 22:34:00,
2013-05-15 18:37:00,87.4,51.3,29.63,WSW,254,0.0,2.0,29,0.00,,---,0.00,VWS V14.01,2013-05-15 22:37:00,
2013-05-15 18:38:00,87.4,51.3,29.63,NW,309,2.0,11.0,29,0.00,,---,0.00,VWS V14.01,2013-05-15 22:38:00,
2013-05-15 18:39:00,87.4,51.3,29.63,NW,309,2.0,11.0,29,0.00,,---,0.00,VWS V14.01,2013-05-15 22:39:00,
2013-05-15 18:41:00,87.2,51.1,29.63,WNW,292,5.0,8.0,29,0.00,,---,0.00,VWS V14.01,2013-05-15 22:41:00,
2013-05-15 18:42:00,87.2,51.1,29.63,West,264,3.0,5.0,29,0.00,,---,0.00,VWS V14.01,2013-05-15 22:42:00,
2013-05-15 18:43:00,87.2,50.2,29.63,West,264,3.0,3.0,28,0.00,,---,0.00,VWS V14.01,2013-05-15 22:43:00,
2013-05-15 18:44:00,87.2,51.1,29.63,West,264,1.0,3.0,29,0.00,,---,0.00,VWS V14.01,2013-05-15 22:44:00,
2013-05-15 18:46:00,87.2,51.1,29.63,NNE,13,4.0,4.0,29,0.00,,---,0.00,VWS V14.01,2013-05-15 22:46:00,
2013-05-15 18:47:00,87.2,50.2,29.63,WNW,288,3.0,4.0,28,0.00,,---,0.00,VWS V14.01,2013-05-15 22:47:00,
2013-05-15 18:49:00,87.0,50.9,29.63,SW,224,0.0,1.0,29,0.00,,---,0.00,VWS V14.01,2013-05-15 22:49:00,
2013-05-15 18:51:00,87.0,51.8,29.63,West,269,3.0,10.0,30,0.00,,---,0.00,VWS V14.01,2013-05-15 22:51:00,
2013-05-15 18:52:00,87.0,51.8,29.63,WSW,253,6.0,10.0,30,0.00,,---,0.00,VWS V14.01,2013-05-15 22:52:00,
2013-05-15 18:54:00,87.0,50.9,29.63,WSW,242,0.0,2.0,29,0.00,,---,0.00,VWS V14.01,2013-05-15 22:54:00,
2013-05-15 18:56:00,87.0,50.9,29.63,SSW,209,0.0,1.0,29,0.00,,---,0.00,VWS V14.01,2013-05-15 22:56:00,
2013-05-15 18:57:00,87.0,50.9,29.63,SSW,209,0.0,0.0,29,0.00,,---,0.00,VWS V14.01,2013-05-15 22:57:00,
2013-05-15 18:59:00,87.0,51.8,29.63,SW,236,6.0,6.0,30,0.00,,---,0.00,VWS V14.01,2013-05-15 22:59:00,
2013-05-15 19:01:00,86.7,51.6,29.63,SW,236,0.0,0.0,30,0.00,,---,0.00,VWS V14.01,2013-05-15 23:01:00,
2013-05-15 19:02:00,86.7,52.5,29.64,SW,236,1.0,1.0,31,0.00,,---,0.00,VWS V14.01,2013-05-15 23:02:00,
2013-05-15 19:05:00,86.7,52.5,29.64,WSW,237,0.0,4.0,31,0.00,,---,0.00,VWS V14.01,2013-05-15 23:05:00,
2013-05-15 19:06:00,86.7,52.5,29.64,WSW,237,0.0,0.0,31,0.00,,---,0.00,VWS V14.01,2013-05-15 23:06:00,
2013-05-15 19:08:00,86.7,52.5,29.64,West,267,0.0,0.0,31,0.00,,---,0.00,VWS V14.01,2013-05-15 23:08:00,
2013-05-15 19:10:00,86.7,52.5,29.64,WSW,240,5.0,5.0,31,0.00,,---,0.00,VWS V14.01,2013-05-15 23:10:00,
2013-05-15 19:11:00,86.7,51.6,29.64,SW,236,0.0,5.0,30,0.00,,---,0.00,VWS V14.01,2013-05-15 23:11:00,
2013-05-15 19:12:00,86.7,51.6,29.64,SW,236,0.0,0.0,30,0.00,,---,0.00,VWS V14.01,2013-05-15 23:12:00,
2013-05-15 19:13:00,86.5,51.4,29.64,SW,221,3.0,5.0,30,0.00,,---,0.00,VWS V14.01,2013-05-15 23:13:00,
2013-05-15 19:15:00,86.5,52.3,29.64,WSW,238,5.0,5.0,31,0.00,,---,0.00,VWS V14.01,2013-05-15 23:15:00,
2013-05-15 19:16:00,86.5,52.3,29.64,SSW,205,4.0,10.0,31,0.00,,---,0.00,VWS V14.01,2013-05-15 23:16:00,
2013-05-15 19:17:00,86.5,52.3,29.64,SSW,209,3.0,10.0,31,0.00,,---,0.00,VWS V14.01,2013-05-15 23:17:00,
2013-05-15 19:18:00,86.3,51.2,29.64,SW,233,3.0,7.0,30,0.00,,---,0.00,VWS V14.01,2013-05-15 23:18:00,
2013-05-15 19:20:00,86.3,52.1,29.64,WSW,250,5.0,6.0,31,0.00,,---,0.00,VWS V14.01,2013-05-15 23:20:00,
2013-05-15 19:21:00,86.3,51.2,29.64,SW,234,2.0,4.0,30,0.00,,---,0.00,VWS V14.01,2013-05-15 23:21:00,
2013-05-15 19:22:00,86.3,51.2,29.64,SW,234,0.0,1.0,30,0.00,,---,0.00,VWS V14.01,2013-05-15 23:22:00,
2013-05-15 19:23:00,86.3,52.1,29.64,SW,234,0.0,1.0,31,0.00,,---,0.00,VWS V14.01,2013-05-15 23:23:00,
2013-05-15 19:25:00,86.1,52.8,29.64,SW,232,6.0,11.0,32,0.00,,---,0.00,VWS V14.01,2013-05-15 23:25:00,
2013-05-15 19:26:00,86.1,52.0,29.64,SW,232,3.0,3.0,31,0.00,,---,0.00,VWS V14.01,2013-05-15 23:26:00,
2013-05-15 19:27:00,86.1,52.0,29.64,SSW,209,11.0,11.0,31,0.00,,---,0.00,VWS V14.01,2013-05-15 23:27:00,
2013-05-15 19:28:00,85.9,51.8,29.64,SSW,194,11.0,12.0,31,0.00,,---,0.00,VWS V14.01,2013-05-15 23:28:00,
2013-05-15 19:30:00,85.9,51.8,29.64,NW,307,3.0,12.0,31,0.00,,---,0.00,VWS V14.01,2013-05-15 23:30:00,
2013-05-15 19:31:00,85.7,52.5,29.64,West,260,0.0,3.0,32,0.00,,---,0.00,VWS V14.01,2013-05-15 23:31:00,
2013-05-15 19:33:00,85.7,51.6,29.65,West,259,5.0,5.0,31,0.00,,---,0.00,VWS V14.01,2013-05-15 23:33:00,
2013-05-15 19:34:00,85.7,51.6,29.65,WSW,250,0.0,0.0,31,0.00,,---,0.00,VWS V14.01,2013-05-15 23:34:00,
2013-05-15 19:35:00,85.7,52.5,29.65,WSW,248,0.0,4.0,32,0.00,,---,0.00,VWS V14.01,2013-05-15 23:35:00,
2013-05-15 19:37:00,85.5,52.3,29.65,WSW,245,0.0,3.0,32,0.00,,---,0.00,VWS V14.01,2013-05-15 23:37:00,
2013-05-15 19:38:00,85.5,52.3,29.65,WSW,245,1.0,3.0,32,0.00,,---,0.00,VWS V14.01,2013-05-15 23:38:00,
2013-05-15 19:39:00,85.5,52.3,29.65,WSW,245,0.0,0.0,32,0.00,,---,0.00,VWS V14.01,2013-05-15 23:39:00,
2013-05-15 19:41:00,85.5,52.3,29.65,WSW,240,4.0,6.0,32,0.00,,---,0.00,VWS V14.01,2013-05-15 23:41:00,
2013-05-15 19:42:00,85.3,53.0,29.65,WSW,240,0.0,0.0,33,0.00,,---,0.00,VWS V14.01,2013-05-15 23:42:00,
2013-05-15 19:43:00,85.3,52.1,29.65,SSW,209,3.0,5.0,32,0.00,,---,0.00,VWS V14.01,2013-05-15 23:43:00,
2013-05-15 19:44:00,85.3,52.1,29.65,WSW,251,8.0,9.0,32,0.00,,---,0.00,VWS V14.01,2013-05-15 23:44:00,
2013-05-15 19:47:00,85.1,52.8,29.65,WSW,244,0.0,0.0,33,0.00,,---,0.00,VWS V14.01,2013-05-15 23:47:00,
2013-05-15 19:48:00,84.9,53.4,29.65,WNW,286,3.0,3.0,34,0.00,,---,0.00,VWS V14.01,2013-05-15 23:48:00,
2013-05-15 19:49:00,84.9,52.6,29.65,WNW,286,0.0,7.0,33,0.00,,---,0.00,VWS V14.01,2013-05-15 23:49:00,
2013-05-15 19:52:00,84.7,52.4,29.65,SSW,200,9.0,9.0,33,0.00,,---,0.00,VWS V14.01,2013-05-15 23:52:00,
2013-05-15 19:53:00,84.7,51.6,29.65,SW,231,0.0,9.0,32,0.00,,---,0.00,VWS V14.01,2013-05-15 23:53:00,
2013-05-15 19:55:00,84.5,52.3,29.65,SW,231,5.0,11.0,33,0.00,,---,0.00,VWS V14.01,2013-05-15 23:55:00,
2013-05-15 19:57:00,84.3,52.1,29.65,WSW,239,0.0,5.0,33,0.00,,---,0.00,VWS V14.01,2013-05-15 23:57:00,
2013-05-15 19:58:00,84.3,52.1,29.65,WSW,239,5.0,5.0,33,0.00,,---,0.00,VWS V14.01,2013-05-15 23:58:00,
2013-05-15 19:59:00,84.3,52.1,29.65,WSW,239,0.0,1.0,33,0.00,,---,0.00,VWS V14.01,2013-05-15 23:59:00,
2013-05-15 20:00:00,84.1,51.9,29.65,WSW,239,3.0,4.0,33,0.00,,---,0.00,VWS V14.01,2013-05-16 00:00:00,
2013-05-15 20:02:00,84.1,51.9,29.66,WSW,244,0.0,5.0,33,0.00,,---,0.00,VWS V14.01,2013-05-16 00:02:00,
2013-05-15 20:03:00,84.0,52.6,29.66,WSW,244,0.0,0.0,34,0.00,,---,0.00,VWS V14.01,2013-05-16 00:03:00,
2013-05-15 20:04:00,84.0,52.6,29.66,WSW,244,0.0,4.0,34,0.00,,---,0.00,VWS V14.01,2013-05-16 00:04:00,
2013-05-15 20:05:00,84.0,52.6,29.66,WSW,244,0.0,0.0,34,0.00,,---,0.00,VWS V14.01,2013-05-16 00:05:00,
2013-05-15 20:08:00,83.8,52.5,29.66,WSW,239,1.0,1.0,34,0.00,,---,0.00,VWS V14.01,2013-05-16 00:08:00,
2013-05-15 20:10:00,83.8,52.5,29.66,WSW,244,4.0,4.0,34,0.00,,---,0.00,VWS V14.01,2013-05-16 00:10:00,
2013-05-15 20:13:00,83.4,52.1,29.66,SW,221,2.0,7.0,34,0.00,,---,0.00,VWS V14.01,2013-05-16 00:13:00,
2013-05-15 20:15:00,83.4,52.1,29.66,SW,221,0.0,1.0,34,0.00,,---,0.00,VWS V14.01,2013-05-16 00:15:00,
2013-05-15 20:18:00,83.2,52.7,29.66,SW,221,0.0,1.0,35,0.00,,---,0.00,VWS V14.01,2013-05-16 00:18:00,
2013-05-15 20:19:00,83.2,52.7,29.66,SW,221,1.0,1.0,35,0.00,,---,0.00,VWS V14.01,2013-05-16 00:19:00,
2013-05-15 20:20:00,83.2,52.7,29.66,SW,221,1.0,1.0,35,0.00,,---,0.00,VWS V14.01,2013-05-16 00:20:00,
2013-05-15 20:21:00,83.2,52.7,29.66,SW,221,0.0,2.0,35,0.00,,---,0.00,VWS V14.01,2013-05-16 00:21:00,
2013-05-15 20:24:00,83.0,52.6,29.66,NNW,336,6.0,6.0,35,0.00,,---,0.00,VWS V14.01,2013-05-16 00:24:00,
2013-05-15 20:25:00,82.8,52.4,29.66,NW,315,17.0,17.0,35,0.00,,---,0.00,VWS V14.01,2013-05-16 00:25:00,
2013-05-15 20:26:00,82.8,53.2,29.66,NW,322,0.0,17.0,36,0.00,,---,0.00,VWS V14.01,2013-05-16 00:26:00,
2013-05-15 20:29:00,82.6,52.2,29.66,SSW,209,3.0,3.0,35,0.00,,---,0.00,VWS V14.01,2013-05-16 00:29:00,
2013-05-15 20:31:00,82.6,53.0,29.66,SSW,209,2.0,4.0,36,0.00,,---,0.00,VWS V14.01,2013-05-16 00:31:00,
2013-05-15 20:34:00,82.4,52.8,29.67,West,277,0.0,3.0,36,0.00,,---,0.00,VWS V14.01,2013-05-16 00:34:00,
2013-05-15 20:36:00,82.4,52.8,29.67,West,265,3.0,4.0,36,0.00,,---,0.00,VWS V14.01,2013-05-16 00:36:00,
2013-05-15 20:37:00,82.4,52.8,29.67,West,264,0.0,1.0,36,0.00,,---,0.00,VWS V14.01,2013-05-16 00:37:00,
2013-05-15 20:39:00,82.2,52.6,29.67,West,269,8.0,14.0,36,0.00,,---,0.00,VWS V14.01,2013-05-16 00:39:00,
2013-05-15 20:40:00,82.2,53.4,29.67,WSW,252,5.0,15.0,37,0.00,,---,0.00,VWS V14.01,2013-05-16 00:40:00,
2013-05-15 20:41:00,82.2,52.6,29.67,SSW,211,6.0,11.0,36,0.00,,---,0.00,VWS V14.01,2013-05-16 00:41:00,
2013-05-15 20:42:00,82.2,52.6,29.67,West,281,0.0,3.0,36,0.00,,---,0.00,VWS V14.01,2013-05-16 00:42:00,
2013-05-15 20:44:00,82.0,53.2,29.67,West,277,10.0,14.0,37,0.00,,---,0.00,VWS V14.01,2013-05-16 00:44:00,
2013-05-15 20:45:00,82.0,53.2,29.67,East,99,2.0,14.0,37,0.00,,---,0.00,VWS V14.01,2013-05-16 00:45:00,
2013-05-15 20:47:00,82.0,52.4,29.67,NNW,334,6.0,15.0,36,0.00,,---,0.00,VWS V14.01,2013-05-16 00:47:00,
2013-05-15 20:50:00,82.0,53.2,29.68,SW,223,2.0,6.0,37,0.00,,---,0.00,VWS V14.01,2013-05-16 00:50:00,
2013-05-15 20:51:00,82.0,53.2,29.68,SW,222,0.0,4.0,37,0.00,,---,0.00,VWS V14.01,2013-05-16 00:51:00,
2013-05-15 20:52:00,82.0,52.4,29.68,WSW,238,2.0,4.0,36,0.00,,---,0.00,VWS V14.01,2013-05-16 00:52:00,
2013-05-15 20:55:00,82.2,52.6,29.68,SW,236,12.0,14.0,36,0.00,,---,0.00,VWS V14.01,2013-05-16 00:55:00,
2013-05-15 20:56:00,82.2,53.4,29.68,West,275,4.0,11.0,37,0.00,,---,0.00,VWS V14.01,2013-05-16 00:56:00,
2013-05-15 20:57:00,82.2,53.4,29.68,WSW,240,9.0,11.0,37,0.00,,---,0.00,VWS V14.01,2013-05-16 00:57:00,
2013-05-15 20:58:00,82.2,53.4,29.68,West,259,5.0,9.0,37,0.00,,---,0.00,VWS V14.01,2013-05-16 00:58:00,
2013-05-15 21:00:00,82.2,52.6,29.68,West,274,3.0,9.0,36,0.00,,---,0.00,VWS V14.01,2013-05-16 01:00:00,
2013-05-15 21:01:00,82.2,52.6,29.68,WSW,242,6.0,10.0,36,0.00,,---,0.00,VWS V14.01,2013-05-16 01:01:00,
2013-05-15 21:02:00,82.2,52.6,29.69,West,272,4.0,8.0,36,0.00,,---,0.00,VWS V14.01,2013-05-16 01:02:00,
2013-05-15 21:03:00,82.2,52.6,29.69,West,259,0.0,3.0,36,0.00,,---,0.00,VWS V14.01,2013-05-16 01:03:00,
2013-05-15 21:05:00,82.2,53.4,29.69,West,279,2.0,4.0,37,0.00,,---,0.00,VWS V14.01,2013-05-16 01:05:00,
2013-05-15 21:06:00,82.2,52.6,29.69,SW,236,0.0,3.0,36,0.00,,---,0.00,VWS V14.01,2013-05-16 01:06:00,
2013-05-15 21:07:00,82.2,53.4,29.69,WSW,252,5.0,5.0,37,0.00,,---,0.00,VWS V14.01,2013-05-16 01:07:00,
2013-05-15 21:08:00,82.2,53.4,29.69,WSW,245,3.0,4.0,37,0.00,,---,0.00,VWS V14.01,2013-05-16 01:08:00,
2013-05-15 21:11:00,82.2,53.4,29.69,SW,227,6.0,9.0,37,0.00,,---,0.00,VWS V14.01,2013-05-16 01:11:00,
2013-05-15 21:12:00,82.2,53.4,29.69,WSW,240,2.0,7.0,37,0.00,,---,0.00,VWS V14.01,2013-05-16 01:12:00,
2013-05-15 21:13:00,82.2,53.4,29.69,WSW,250,0.0,5.0,37,0.00,,---,0.00,VWS V14.01,2013-05-16 01:13:00,
2013-05-15 21:16:00,82.0,53.2,29.69,West,277,6.0,10.0,37,0.00,,---,0.00,VWS V14.01,2013-05-16 01:16:00,
2013-05-15 21:17:00,82.0,53.9,29.69,SW,234,1.0,7.0,38,0.00,,---,0.00,VWS V14.01,2013-05-16 01:17:00,
2013-05-15 21:18:00,82.0,53.2,29.69,WSW,237,7.0,11.0,37,0.00,,---,0.00,VWS V14.01,2013-05-16 01:18:00,
2013-05-15 21:21:00,81.8,53.0,29.69,SSW,200,4.0,4.0,37,0.00,,---,0.00,VWS V14.01,2013-05-16 01:21:00,
2013-05-15 21:22:00,81.8,53.0,29.69,WNW,284,1.0,2.0,37,0.00,,---,0.00,VWS V14.01,2013-05-16 01:22:00,
2013-05-15 21:23:00,81.8,53.0,29.69,West,279,0.0,3.0,37,0.00,,---,0.00,VWS V14.01,2013-05-16 01:23:00,
2013-05-15 21:24:00,81.8,53.0,29.69,West,264,3.0,5.0,37,0.00,,---,0.00,VWS V14.01,2013-05-16 01:24:00,
2013-05-15 21:26:00,81.8,53.0,29.69,WSW,247,1.0,1.0,37,0.00,,---,0.00,VWS V14.01,2013-05-16 01:26:00,
2013-05-15 21:27:00,81.8,53.0,29.69,SSW,197,0.0,1.0,37,0.00,,---,0.00,VWS V14.01,2013-05-16 01:27:00,
2013-05-15 21:28:00,81.8,53.0,29.69,SW,232,0.0,4.0,37,0.00,,---,0.00,VWS V14.01,2013-05-16 01:28:00,
2013-05-15 21:29:00,81.8,53.0,29.69,WSW,257,0.0,0.0,37,0.00,,---,0.00,VWS V14.01,2013-05-16 01:29:00,
2013-05-15 21:31:00,81.6,53.6,29.69,West,268,3.0,4.0,38,0.00,,---,0.00,VWS V14.01,2013-05-16 01:31:00,
2013-05-15 21:32:00,81.6,53.6,29.70,WSW,252,4.0,5.0,38,0.00,,---,0.00,VWS V14.01,2013-05-16 01:32:00,
2013-05-15 21:34:00,81.6,53.6,29.70,SW,226,12.0,13.0,38,0.00,,---,0.00,VWS V14.01,2013-05-16 01:34:00,
2013-05-15 21:37:00,81.6,53.6,29.70,SSW,208,0.0,6.0,38,0.00,,---,0.00,VWS V14.01,2013-05-16 01:37:00,
2013-05-15 21:38:00,81.6,53.6,29.70,West,269,6.0,6.0,38,0.00,,---,0.00,VWS V14.01,2013-05-16 01:38:00,
2013-05-15 21:39:00,81.6,53.6,29.70,West,261,4.0,11.0,38,0.00,,---,0.00,VWS V14.01,2013-05-16 01:39:00,
2013-05-15 21:40:00,81.6,53.6,29.70,SW,214,2.0,3.0,38,0.00,,---,0.00,VWS V14.01,2013-05-16 01:40:00,
2013-05-15 21:42:00,81.6,53.6,29.70,WSW,245,2.0,6.0,38,0.00,,---,0.00,VWS V14.01,2013-05-16 01:42:00,
2013-05-15 21:43:00,81.6,53.6,29.70,WSW,242,6.0,12.0,38,0.00,,---,0.00,VWS V14.01,2013-05-16 01:43:00,
2013-05-15 21:44:00,81.6,53.6,29.70,SSW,209,2.0,10.0,38,0.00,,---,0.00,VWS V14.01,2013-05-16 01:44:00,
2013-05-15 21:45:00,81.6,53.6,29.70,WSW,255,6.0,10.0,38,0.00,,---,0.00,VWS V14.01,2013-05-16 01:45:00,
2013-05-15 21:47:00,81.4,53.4,29.70,SW,235,0.0,4.0,38,0.00,,---,0.00,VWS V14.01,2013-05-16 01:47:00,
2013-05-15 21:48:00,81.4,53.4,29.71,SSW,213,7.0,12.0,38,0.00,,---,0.00,VWS V14.01,2013-05-16 01:48:00,
2013-05-15 21:50:00,81.4,53.4,29.71,SW,234,6.0,7.0,38,0.00,,---,0.00,VWS V14.01,2013-05-16 01:50:00,
2013-05-15 21:51:00,81.4,53.4,29.71,West,281,3.0,3.0,38,0.00,,---,0.00,VWS V14.01,2013-05-16 01:51:00,
2013-05-15 21:52:00,81.4,53.4,29.71,West,276,10.0,10.0,38,0.00,,---,0.00,VWS V14.01,2013-05-16 01:52:00,
2013-05-15 21:53:00,81.4,53.4,29.71,WSW,256,0.0,10.0,38,0.00,,---,0.00,VWS V14.01,2013-05-16 01:53:00,
2013-05-15 21:55:00,81.4,53.4,29.71,SW,220,3.0,3.0,38,0.00,,---,0.00,VWS V14.01,2013-05-16 01:55:00,
2013-05-15 21:56:00,81.2,53.2,29.71,SSW,192,1.0,10.0,38,0.00,,---,0.00,VWS V14.01,2013-05-16 01:56:00,
2013-05-15 21:57:00,81.2,53.2,29.71,SSW,208,10.0,10.0,38,0.00,,---,0.00,VWS V14.01,2013-05-16 01:57:00,
2013-05-15 21:59:00,81.2,53.2,29.71,WSW,239,3.0,10.0,38,0.00,,---,0.00,VWS V14.01,2013-05-16 01:59:00,
2013-05-15 22:00:00,81.2,53.2,29.71,SSW,211,3.0,5.0,38,0.00,,---,0.00,VWS V14.01,2013-05-16 02:00:00,
2013-05-15 22:02:00,81.2,53.2,29.71,West,259,19.0,24.0,38,0.00,,---,0.00,VWS V14.01,2013-05-16 02:02:00,
2013-05-15 22:04:00,81.2,53.2,29.71,SW,221,5.0,8.0,38,0.00,,---,0.00,VWS V14.01,2013-05-16 02:04:00,
2013-05-15 22:05:00,81.2,53.2,29.71,SW,220,0.0,5.0,38,0.00,,---,0.00,VWS V14.01,2013-05-16 02:05:00,
2013-05-15 22:07:00,81.2,53.2,29.71,West,278,4.0,4.0,38,0.00,,---,0.00,VWS V14.01,2013-05-16 02:07:00,
2013-05-15 22:08:00,81.2,53.2,29.71,SW,216,10.0,10.0,38,0.00,,---,0.00,VWS V14.01,2013-05-16 02:08:00,
2013-05-15 22:10:00,81.2,53.9,29.71,SSW,196,5.0,9.0,39,0.00,,---,0.00,VWS V14.01,2013-05-16 02:10:00,
2013-05-15 22:12:00,81.2,53.9,29.71,SW,218,5.0,13.0,39,0.00,,---,0.00,VWS V14.01,2013-05-16 02:12:00,
2013-05-15 22:13:00,81.2,53.2,29.71,WSW,257,4.0,11.0,38,0.00,,---,0.00,VWS V14.01,2013-05-16 02:13:00,
2013-05-15 22:15:00,81.1,53.1,29.71,SW,223,12.0,12.0,38,0.00,,---,0.00,VWS V14.01,2013-05-16 02:15:00,
2013-05-15 22:17:00,81.1,53.1,29.70,SW,231,7.0,7.0,38,0.00,,---,0.00,VWS V14.01,2013-05-16 02:17:00,
2013-05-15 22:18:00,81.1,53.1,29.70,WNW,286,3.0,10.0,38,0.00,,---,0.00,VWS V14.01,2013-05-16 02:18:00,
2013-05-15 22:20:00,81.1,53.1,29.70,WNW,294,3.0,11.0,38,0.00,,---,0.00,VWS V14.01,2013-05-16 02:20:00,
2013-05-15 22:21:00,81.1,53.1,29.70,SSW,194,3.0,5.0,38,0.00,,---,0.00,VWS V14.01,2013-05-16 02:21:00,
2013-05-15 22:23:00,81.1,53.1,29.70,West,271,2.0,4.0,38,0.00,,---,0.00,VWS V14.01,2013-05-16 02:23:00,
2013-05-15 22:25:00,81.1,53.1,29.70,WNW,287,3.0,11.0,38,0.00,,---,0.00,VWS V14.01,2013-05-16 02:25:00,
2013-05-15 22:26:00,81.1,53.1,29.70,WSW,243,3.0,5.0,38,0.00,,---,0.00,VWS V14.01,2013-05-16 02:26:00,
2013-05-15 22:28:00,81.1,53.1,29.70,WSW,257,0.0,10.0,38,0.00,,---,0.00,VWS V14.01,2013-05-16 02:28:00,
2013-05-15 22:31:00,81.1,53.1,29.70,West,275,5.0,15.0,38,0.00,,---,0.00,VWS V14.01,2013-05-16 02:31:00,
2013-05-15 22:33:00,80.9,52.9,29.70,WSW,253,7.0,7.0,38,0.00,,---,0.00,VWS V14.01,2013-05-16 02:33:00,
2013-05-15 22:34:00,80.9,52.9,29.70,SSE,163,7.0,12.0,38,0.00,,---,0.00,VWS V14.01,2013-05-16 02:34:00,
2013-05-15 22:36:00,80.9,52.9,29.70,WSW,249,3.0,17.0,38,0.00,,---,0.00,VWS V14.01,2013-05-16 02:36:00,
2013-05-15 22:37:00,80.9,52.9,29.70,SW,215,12.0,12.0,38,0.00,,---,0.00,VWS V14.01,2013-05-16 02:37:00,
2013-05-15 22:38:00,80.9,52.9,29.70,WNW,300,5.0,13.0,38,0.00,,---,0.00,VWS V14.01,2013-05-16 02:38:00,
2013-05-15 22:39:00,80.9,52.9,29.70,SW,219,4.0,7.0,38,0.00,,---,0.00,VWS V14.01,2013-05-16 02:39:00,
2013-05-15 22:41:00,80.7,52.8,29.70,WSW,251,10.0,10.0,38,0.00,,---,0.00,VWS V14.01,2013-05-16 02:41:00,
2013-05-15 22:42:00,80.7,52.8,29.70,WSW,242,0.0,7.0,38,0.00,,---,0.00,VWS V14.01,2013-05-16 02:42:00,
2013-05-15 22:44:00,80.7,52.8,29.70,SW,225,5.0,11.0,38,0.00,,---,0.00,VWS V14.01,2013-05-16 02:44:00,
2013-05-15 22:45:00,80.7,52.8,29.70,West,261,6.0,11.0,38,0.00,,---,0.00,VWS V14.01,2013-05-16 02:45:00,
2013-05-15 22:46:00,80.7,52.8,29.70,WSW,250,4.0,4.0,38,0.00,,---,0.00,VWS V14.01,2013-05-16 02:46:00,
2013-05-15 22:47:00,80.7,52.0,29.71,SSW,201,6.0,16.0,37,0.00,,---,0.00,VWS V14.01,2013-05-16 02:47:00,
2013-05-15 22:50:00,80.7,52.8,29.71,WSW,246,12.0,16.0,38,0.00,,---,0.00,VWS V14.01,2013-05-16 02:50:00,
2013-05-15 22:51:00,80.7,52.0,29.71,SW,234,17.0,21.0,37,0.00,,---,0.00,VWS V14.01,2013-05-16 02:51:00,
2013-05-15 22:52:00,80.7,52.8,29.71,SSW,208,0.0,7.0,38,0.00,,---,0.00,VWS V14.01,2013-05-16 02:52:00,
2013-05-15 22:55:00,80.7,52.0,29.71,SSW,207,4.0,5.0,37,0.00,,---,0.00,VWS V14.01,2013-05-16 02:55:00,
2013-05-15 22:56:00,80.7,52.0,29.71,SSW,194,3.0,3.0,37,0.00,,---,0.00,VWS V14.01,2013-05-16 02:56:00,
2013-05-15 22:58:00,80.7,52.0,29.71,West,266,2.0,4.0,37,0.00,,---,0.00,VWS V14.01,2013-05-16 02:58:00,
2013-05-15 23:00:00,80.7,52.0,29.71,SW,225,1.0,4.0,37,0.00,,---,0.00,VWS V14.01,2013-05-16 03:00:00,
2013-05-15 23:01:00,80.7,52.0,29.71,West,261,4.0,4.0,37,0.00,,---,0.00,VWS V14.01,2013-05-16 03:01:00,
2013-05-15 23:03:00,80.5,52.6,29.71,West,259,5.0,11.0,38,0.00,,---,0.00,VWS V14.01,2013-05-16 03:03:00,
2013-05-15 23:05:00,80.5,52.6,29.71,SSW,205,14.0,14.0,38,0.00,,---,0.00,VWS V14.01,2013-05-16 03:05:00,
2013-05-15 23:06:00,80.5,51.9,29.71,SW,221,9.0,13.0,37,0.00,,---,0.00,VWS V14.01,2013-05-16 03:06:00,
2013-05-15 23:08:00,80.3,51.7,29.71,SSW,207,2.0,7.0,37,0.00,,---,0.00,VWS V14.01,2013-05-16 03:08:00,
2013-05-15 23:11:00,80.3,52.4,29.71,SSW,203,4.0,13.0,38,0.00,,---,0.00,VWS V14.01,2013-05-16 03:11:00,
2013-05-15 23:13:00,80.3,52.4,29.71,West,274,0.0,5.0,38,0.00,,---,0.00,VWS V14.01,2013-05-16 03:13:00,
2013-05-15 23:16:00,80.1,52.2,29.71,South,170,6.0,6.0,38,0.00,,---,0.00,VWS V14.01,2013-05-16 03:16:00,
2013-05-15 23:18:00,80.1,51.5,29.69,WSW,254,7.0,12.0,37,0.00,,---,0.00,VWS V14.01,2013-05-16 03:18:00,
2013-05-15 23:21:00,79.9,51.3,29.69,West,276,4.0,8.0,37,0.00,,---,0.00,VWS V14.01,2013-05-16 03:21:00,
2013-05-15 23:23:00,79.9,51.3,29.69,SW,220,2.0,4.0,37,0.00,,---,0.00,VWS V14.01,2013-05-16 03:23:00,
2013-05-15 23:26:00,79.9,51.3,29.69,WSW,254,1.0,11.0,37,0.00,,---,0.00,VWS V14.01,2013-05-16 03:26:00,
2013-05-15 23:27:00,79.9,51.3,29.69,WNW,297,2.0,11.0,37,0.00,,---,0.00,VWS V14.01,2013-05-16 03:27:00,
2013-05-15 23:30:00,79.8,51.2,29.69,SSW,207,5.0,5.0,37,0.00,,---,0.00,VWS V14.01,2013-05-16 03:30:00,
2013-05-15 23:31:00,79.8,51.2,29.69,WSW,246,2.0,10.0,37,0.00,,---,0.00,VWS V14.01,2013-05-16 03:31:00,
2013-05-15 23:32:00,79.8,51.2,29.70,SW,217,4.0,4.0,37,0.00,,---,0.00,VWS V14.01,2013-05-16 03:32:00,
2013-05-15 23:35:00,79.8,50.5,29.70,SW,229,4.0,9.0,36,0.00,,---,0.00,VWS V14.01,2013-05-16 03:35:00,
2013-05-15 23:36:00,79.8,51.2,29.70,SSW,193,10.0,10.0,37,0.00,,---,0.00,VWS V14.01,2013-05-16 03:36:00,
2013-05-15 23:37:00,79.8,50.5,29.70,SW,220,4.0,10.0,36,0.00,,---,0.00,VWS V14.01,2013-05-16 03:37:00,
2013-05-15 23:40:00,79.6,50.3,29.70,West,260,0.0,5.0,36,0.00,,---,0.00,VWS V14.01,2013-05-16 03:40:00,
2013-05-15 23:41:00,79.6,50.3,29.70,SW,214,10.0,12.0,36,0.00,,---,0.00,VWS V14.01,2013-05-16 03:41:00,
2013-05-15 23:42:00,79.6,50.3,29.70,WSW,242,5.0,5.0,36,0.00,,---,0.00,VWS V14.01,2013-05-16 03:42:00,
2013-05-15 23:45:00,79.6,50.3,29.70,WSW,245,10.0,15.0,36,0.00,,---,0.00,VWS V14.01,2013-05-16 03:45:00,
2013-05-15 23:46:00,79.4,50.2,29.70,WSW,239,15.0,18.0,36,0.00,,---,0.00,VWS V14.01,2013-05-16 03:46:00,
2013-05-15 23:47:00,79.4,50.2,29.69,SW,222,10.0,11.0,36,0.00,,---,0.00,VWS V14.01,2013-05-16 03:47:00,
2013-05-15 23:50:00,79.4,50.2,29.69,SSE,162,7.0,10.0,36,0.00,,---,0.00,VWS V14.01,2013-05-16 03:50:00,
2013-05-15 23:52:00,79.4,50.2,29.69,SW,224,4.0,19.0,36,0.00,,---,0.00,VWS V14.01,2013-05-16 03:52:00,
2013-05-15 23:53:00,79.4,50.2,29.69,SW,228,7.0,10.0,36,0.00,,---,0.00,VWS V14.01,2013-05-16 03:53:00,
2013-05-15 23:56:00,79.4,50.2,29.69,SW,236,4.0,5.0,36,0.00,,---,0.00,VWS V14.01,2013-05-16 03:56:00,
2013-05-15 23:57:00,79.4,50.2,29.69,NNW,346,6.0,10.0,36,0.00,,---,0.00,VWS V14.01,2013-05-16 03:57:00,
2013-05-15 23:58:00,79.4,49.4,29.69,West,281,1.0,4.0,35,0.00,,---,0.00,VWS V14.01,2013-05-16 03:58:00,